GFSGBSN_prec_precacc_018.txt.gz
Total_Precipitation_Accumulation
0.09 0.07 0.08 0.09 0.08 0.08 0.07 0.08 0.09 0.08 0.07 0.08 0.10 0.09 0.08 0.07 0.08 0.09 0.03 0.00 0.00 0.00 0.00 0.00 0.00 0.01 0.01 0.02 0.00 0.00 0.00 0.00 0.01 0.14 0.03 0.01 0.00 0.00 0.00 0.00 0.00 0.00 0.00 0.00 0.00 0.00 0.00
0.05 0.05 0.04 0.05 0.06 0.07 0.08 0.10 0.10 0.10 0.09 0.09 0.10 0.10 0.11 0.11 0.09 0.08 0.05 0.00 0.00 0.00 0.01 0.01 0.00 0.01 0.01 0.00 0.00 0.00 0.00 0.00 0.00 0.03 0.03 0.02 0.01 0.00 0.00 0.00 0.01 0.00 0.00 0.00 0.00 0.00 0.00
0.03 0.03 0.04 0.07 0.08 0.09 0.10 0.11 0.12 0.12 0.11 0.12 0.13 0.13 0.10 0.10 0.12 0.11 0.08 0.01 0.01 0.01 0.00 0.00 0.01 0.00 0.00 0.00 0.00 0.00 0.00 0.00 0.00 0.02 0.02 0.03 0.02 0.04 0.04 0.01 0.00 0.01 0.04 0.01 0.00 0.00 0.00
0.03 0.04 0.05 0.06 0.08 0.08 0.09 0.09 0.08 0.09 0.13 0.13 0.15 0.16 0.14 0.14 0.13 0.13 0.10 0.04 0.03 0.04 0.04 0.02 0.03 0.01 0.01 0.00 0.00 0.00 0.00 0.00 0.00 0.00 0.01 0.02 0.02 0.04 0.04 0.02 0.00 0.02 0.03 0.01 0.00 0.00 0.00
0.04 0.05 0.05 0.06 0.06 0.05 0.05 0.06 0.06 0.08 0.11 0.14 0.15 0.13 0.14 0.16 0.18 0.16 0.11 0.07 0.02 0.02 0.05 0.13 0.03 0.01 0.00 0.00 0.00 0.00 0.00 0.00 0.00 0.00 0.00 0.00 0.00 0.00 0.02 0.04 0.02 0.02 0.01 0.01 0.00 0.00 0.00
0.03 0.04 0.04 0.04 0.04 0.04 0.04 0.06 0.08 0.10 0.12 0.13 0.14 0.15 0.16 0.18 0.22 0.22 0.21 0.22 0.08 0.06 0.06 0.05 0.03 0.03 0.00 0.00 0.00 0.00 0.00 0.00 0.00 0.00 0.00 0.00 0.00 0.00 0.00 0.03 0.02 0.01 0.02 0.01 0.00 0.00 0.01
0.02 0.03 0.04 0.05 0.07 0.09 0.10 0.10 0.11 0.11 0.13 0.15 0.18 0.19 0.19 0.22 0.25 0.38 0.52 0.35 0.07 0.02 0.05 0.01 0.01 0.00 0.00 0.00 0.00 0.00 0.00 0.00 0.00 0.00 0.00 0.00 0.01 0.01 0.00 0.00 0.00 0.00 0.00 0.01 0.00 0.01 0.04
0.02 0.02 0.04 0.08 0.13 0.12 0.11 0.11 0.12 0.11 0.11 0.15 0.21 0.24 0.21 0.20 0.27 0.60 0.77 0.26 0.01 0.00 0.00 0.00 0.00 0.00 0.00 0.00 0.00 0.00 0.00 0.00 0.00 0.00 0.00 0.00 0.00 0.00 0.00 0.00 0.00 0.00 0.01 0.01 0.01 0.01 0.07
0.02 0.03 0.07 0.16 0.15 0.13 0.14 0.17 0.17 0.21 0.24 0.26 0.28 0.24 0.25 0.25 0.41 0.82 0.65 0.22 0.02 0.00 0.01 0.01 0.00 0.00 0.00 0.00 0.00 0.00 0.00 0.00 0.00 0.00 0.00 0.00 0.00 0.00 0.00 0.00 0.00 0.00 0.00 0.00 0.01 0.04 0.06
0.03 0.03 0.05 0.06 0.13 0.18 0.22 0.26 0.34 0.39 0.43 0.49 0.37 0.31 0.29 0.43 0.92 0.59 0.51 0.20 0.10 0.01 0.01 0.00 0.00 0.00 0.00 0.01 0.02 0.00 0.00 0.00 0.01 0.00 0.01 0.02 0.00 0.00 0.00 0.00 0.00 0.00 0.00 0.00 0.01 0.06 0.03
0.03 0.04 0.05 0.06 0.08 0.13 0.21 0.29 0.38 0.49 0.54 0.51 0.51 0.39 0.40 0.70 0.91 0.65 0.36 0.23 0.19 0.04 0.01 0.00 0.00 0.00 0.01 0.01 0.01 0.00 0.00 0.04 0.02 0.00 0.03 0.04 0.00 0.00 0.00 0.00 0.00 0.00 0.00 0.00 0.04 0.29 0.26
0.03 0.06 0.09 0.10 0.13 0.19 0.22 0.24 0.31 0.34 0.43 0.60 0.77 0.74 0.85 0.76 0.76 0.54 0.38 0.38 0.34 0.10 0.01 0.00 0.00 0.04 0.04 0.03 0.02 0.01 0.02 0.08 0.08 0.17 0.16 0.02 0.00 0.01 0.00 0.00 0.00 0.01 0.03 0.03 0.15 0.28 0.56
0.05 0.08 0.12 0.13 0.17 0.21 0.32 0.33 0.31 0.35 0.53 0.76 0.90 1.00 0.94 0.80 0.71 0.63 0.72 0.71 0.45 0.08 0.00 0.01 0.01 0.03 0.01 0.02 0.04 0.05 0.11 0.16 0.30 0.31 0.31 0.16 0.03 0.02 0.04 0.02 0.01 0.02 0.12 0.24 0.33 0.60 0.36
0.06 0.11 0.15 0.16 0.23 0.35 0.42 0.38 0.50 0.61 0.65 0.63 1.07 0.98 0.94 0.75 0.64 1.02 1.15 0.58 0.18 0.01 0.00 0.00 0.00 0.02 0.02 0.02 0.05 0.04 0.20 0.14 0.11 0.20 0.26 0.16 0.07 0.02 0.01 0.01 0.03 0.02 0.05 0.22 0.17 0.18 0.15
0.07 0.13 0.19 0.20 0.31 0.34 0.35 0.36 0.35 0.48 0.68 0.93 1.22 1.27 1.04 0.92 0.87 1.13 1.12 0.43 0.04 0.00 0.00 0.00 0.03 0.09 0.04 0.02 0.05 0.06 0.10 0.09 0.02 0.03 0.13 0.12 0.07 0.03 0.00 0.00 0.10 0.19 0.21 0.14 0.42 0.16 0.26
0.09 0.15 0.19 0.17 0.19 0.33 0.35 0.35 0.46 0.73 0.94 1.01 1.32 1.70 1.02 0.72 1.03 1.27 0.80 0.22 0.00 0.01 0.01 0.03 0.07 0.05 0.00 0.01 0.03 0.03 0.03 0.00 0.00 0.00 0.01 0.03 0.17 0.10 0.07 0.09 0.09 0.17 0.10 0.35 0.97 0.61 0.17
0.10 0.15 0.16 0.19 0.25 0.41 0.49 0.50 0.64 0.85 0.94 1.68 1.20 1.64 0.99 0.85 1.38 1.36 0.69 0.16 0.00 0.00 0.02 0.05 0.05 0.04 0.00 0.00 0.00 0.00 0.00 0.00 0.00 0.00 0.01 0.01 0.09 0.12 0.29 0.14 0.07 0.23 0.31 0.27 0.47 0.44 0.31
0.10 0.14 0.14 0.23 0.31 0.44 0.65 0.62 0.68 1.01 1.32 2.13 1.85 1.14 0.98 1.09 1.62 0.96 0.24 0.03 0.00 0.01 0.03 0.10 0.10 0.04 0.00 0.00 0.00 0.00 0.00 0.00 0.00 0.00 0.01 0.01 0.16 0.21 0.16 0.06 0.06 0.11 0.17 0.15 0.43 0.43 0.25
0.10 0.12 0.12 0.20 0.34 0.43 0.60 0.53 0.53 0.99 1.56 1.88 1.72 1.25 1.30 0.67 0.55 0.28 0.08 0.01 0.01 0.03 0.06 0.12 0.08 0.04 0.01 0.00 0.00 0.00 0.00 0.00 0.00 0.00 0.00 0.05 0.28 0.36 0.29 0.30 0.32 0.28 0.22 0.33 0.35 0.58 0.50
0.09 0.09 0.10 0.15 0.28 0.35 0.43 0.36 0.46 1.03 1.29 1.74 1.50 1.75 2.09 1.43 0.26 0.03 0.01 0.01 0.02 0.03 0.04 0.11 0.13 0.08 0.04 0.02 0.00 0.00 0.00 0.00 0.00 0.00 0.01 0.20 0.40 0.59 0.58 0.51 0.68 0.47 0.27 0.47 0.74 0.75 0.29
0.09 0.08 0.10 0.14 0.16 0.22 0.26 0.31 0.72 1.28 1.41 1.43 1.10 0.75 0.55 0.73 0.27 0.01 0.02 0.03 0.02 0.07 0.09 0.14 0.11 0.09 0.05 0.03 0.01 0.00 0.00 0.00 0.00 0.02 0.13 0.44 0.80 0.91 0.42 0.32 0.62 0.60 0.30 0.41 0.78 0.40 0.21
0.09 0.07 0.10 0.11 0.09 0.13 0.17 0.24 0.61 1.39 1.67 1.15 0.88 0.39 0.04 0.03 0.03 0.00 0.02 0.03 0.03 0.09 0.14 0.13 0.07 0.04 0.05 0.04 0.01 0.00 0.00 0.00 0.00 0.02 0.11 0.33 0.73 0.74 0.46 0.33 0.34 0.32 0.13 0.21 0.52 0.36 0.21
0.08 0.08 0.11 0.09 0.06 0.10 0.10 0.27 0.58 1.40 1.81 1.28 0.73 0.36 0.05 0.03 0.02 0.01 0.00 0.00 0.01 0.09 0.07 0.04 0.05 0.08 0.05 0.03 0.03 0.02 0.01 0.02 0.01 0.02 0.11 0.32 0.50 0.77 0.64 0.40 0.38 0.30 0.07 0.16 0.38 0.32 0.16
0.09 0.09 0.10 0.08 0.04 0.07 0.08 0.31 0.62 1.16 1.49 1.25 0.71 0.44 0.17 0.08 0.03 0.01 0.01 0.01 0.01 0.06 0.07 0.06 0.03 0.06 0.03 0.04 0.05 0.06 0.02 0.02 0.02 0.01 0.03 0.16 0.35 0.63 0.88 0.74 0.72 0.42 0.12 0.15 0.17 0.16 0.10
0.09 0.10 0.08 0.05 0.04 0.05 0.07 0.32 0.48 0.62 0.67 0.75 0.56 0.40 0.17 0.07 0.03 0.03 0.03 0.02 0.03 0.05 0.08 0.10 0.05 0.01 0.05 0.09 0.17 0.19 0.18 0.05 0.00 0.00 0.00 0.03 0.17 0.27 0.33 0.30 0.15 0.10 0.13 0.09 0.08 0.10 0.03
0.08 0.09 0.07 0.02 0.03 0.04 0.06 0.20 0.34 0.46 0.51 0.65 0.65 0.62 0.19 0.06 0.03 0.02 0.03 0.02 0.07 0.13 0.12 0.11 0.09 0.06 0.13 0.21 0.32 0.22 0.09 0.03 0.00 0.00 0.00 0.00 0.02 0.09 0.05 0.08 0.05 0.02 0.02 0.02 0.02 0.01 0.00
0.08 0.07 0.04 0.02 0.03 0.03 0.04 0.10 0.33 0.32 0.39 0.53 0.61 0.49 0.18 0.06 0.01 0.01 0.02 0.01 0.04 0.13 0.18 0.19 0.16 0.18 0.20 0.31 0.30 0.14 0.02 0.00 0.00 0.00 0.00 0.00 0.01 0.01 0.01 0.02 0.00 0.00 0.00 0.00 0.00 0.01 0.00
0.08 0.05 0.03 0.02 0.02 0.03 0.03 0.09 0.30 0.25 0.34 0.44 0.40 0.39 0.23 0.05 0.01 0.01 0.00 0.01 0.06 0.12 0.20 0.23 0.28 0.30 0.26 0.33 0.28 0.12 0.01 0.00 0.00 0.00 0.00 0.00 0.01 0.01 0.00 0.00 0.00 0.00 0.00 0.00 0.00 0.00 0.00
0.07 0.04 0.03 0.02 0.02 0.03 0.03 0.05 0.28 0.24 0.26 0.38 0.30 0.31 0.21 0.05 0.02 0.00 0.00 0.00 0.03 0.09 0.21 0.24 0.26 0.20 0.25 0.22 0.12 0.08 0.02 0.00 0.00 0.00 0.00 0.00 0.00 0.00 0.00 0.00 0.00 0.00 0.00 0.00 0.00 0.00 0.00

GFSGBSN_prec_precacc_021.txt.gz
Total_Precipitation_Accumulation
0.09 0.07 0.08 0.09 0.08 0.08 0.07 0.08 0.09 0.08 0.07 0.08 0.10 0.09 0.08 0.08 0.08 0.12 0.12 0.07 0.01 0.00 0.00 0.00 0.00 0.01 0.01 0.05 0.02 0.00 0.00 0.00 0.04 0.22 0.03 0.01 0.00 0.00 0.00 0.00 0.00 0.00 0.00 0.00 0.00 0.00 0.00
0.05 0.05 0.04 0.05 0.06 0.07 0.08 0.10 0.10 0.10 0.09 0.09 0.10 0.11 0.11 0.11 0.09 0.09 0.10 0.07 0.02 0.00 0.01 0.01 0.00 0.01 0.01 0.01 0.00 0.00 0.00 0.00 0.00 0.10 0.07 0.02 0.01 0.00 0.00 0.00 0.01 0.00 0.00 0.00 0.00 0.00 0.00
0.03 0.03 0.04 0.07 0.08 0.09 0.10 0.11 0.12 0.12 0.11 0.12 0.13 0.13 0.10 0.10 0.12 0.12 0.12 0.10 0.04 0.01 0.00 0.00 0.01 0.00 0.00 0.00 0.00 0.00 0.00 0.00 0.00 0.09 0.09 0.04 0.02 0.04 0.04 0.01 0.00 0.01 0.04 0.01 0.00 0.00 0.00
0.03 0.05 0.06 0.06 0.08 0.08 0.09 0.09 0.09 0.09 0.13 0.13 0.15 0.16 0.14 0.14 0.14 0.14 0.14 0.14 0.11 0.05 0.04 0.02 0.03 0.01 0.01 0.00 0.00 0.00 0.00 0.00 0.00 0.02 0.08 0.07 0.02 0.04 0.04 0.02 0.00 0.02 0.03 0.01 0.00 0.00 0.00
0.05 0.06 0.06 0.06 0.06 0.06 0.06 0.06 0.07 0.08 0.11 0.14 0.15 0.14 0.15 0.16 0.18 0.16 0.17 0.21 0.22 0.09 0.07 0.14 0.03 0.01 0.00 0.00 0.00 0.00 0.00 0.00 0.00 0.00 0.00 0.02 0.01 0.00 0.02 0.04 0.02 0.02 0.01 0.01 0.00 0.00 0.00
0.04 0.05 0.04 0.05 0.05 0.07 0.06 0.08 0.10 0.11 0.12 0.14 0.14 0.16 0.17 0.18 0.23 0.23 0.30 0.43 0.45 0.18 0.12 0.09 0.03 0.03 0.00 0.00 0.00 0.00 0.00 0.00 0.00 0.00 0.00 0.00 0.00 0.00 0.00 0.03 0.02 0.01 0.02 0.01 0.00 0.00 0.01
0.02 0.04 0.06 0.06 0.09 0.11 0.13 0.14 0.12 0.13 0.15 0.16 0.18 0.21 0.22 0.25 0.27 0.40 0.62 0.86 0.73 0.32 0.10 0.01 0.01 0.00 0.00 0.00 0.00 0.00 0.00 0.00 0.00 0.00 0.00 0.00 0.01 0.01 0.00 0.00 0.00 0.00 0.00 0.01 0.00 0.01 0.04
0.03 0.03 0.05 0.09 0.15 0.15 0.15 0.13 0.13 0.13 0.14 0.17 0.23 0.29 0.25 0.22 0.29 0.61 0.90 0.85 0.32 0.07 0.01 0.00 0.00 0.00 0.00 0.00 0.00 0.00 0.00 0.00 0.00 0.00 0.00 0.00 0.01 0.00 0.00 0.00 0.00 0.00 0.01 0.01 0.01 0.01 0.07
0.03 0.04 0.08 0.17 0.17 0.16 0.16 0.19 0.19 0.24 0.27 0.30 0.31 0.28 0.27 0.27 0.42 0.82 0.70 0.47 0.16 0.11 0.04 0.01 0.00 0.00 0.00 0.00 0.00 0.00 0.00 0.00 0.00 0.00 0.00 0.00 0.00 0.00 0.00 0.00 0.00 0.00 0.00 0.00 0.01 0.04 0.06
0.03 0.04 0.06 0.07 0.16 0.21 0.24 0.29 0.37 0.43 0.46 0.55 0.41 0.34 0.30 0.44 0.94 0.61 0.54 0.27 0.39 0.23 0.06 0.01 0.00 0.00 0.00 0.01 0.02 0.00 0.00 0.00 0.01 0.00 0.01 0.02 0.00 0.00 0.00 0.00 0.00 0.00 0.00 0.00 0.01 0.06 0.03
0.03 0.05 0.06 0.08 0.10 0.16 0.24 0.31 0.41 0.52 0.58 0.52 0.54 0.45 0.46 0.76 0.99 0.67 0.41 0.36 0.59 0.43 0.12 0.00 0.00 0.00 0.01 0.01 0.01 0.00 0.00 0.04 0.02 0.00 0.03 0.04 0.00 0.00 0.00 0.00 0.00 0.00 0.00 0.00 0.04 0.29 0.26
0.04 0.08 0.10 0.12 0.16 0.23 0.24 0.27 0.34 0.36 0.44 0.61 0.80 0.81 0.96 0.80 0.80 0.55 0.45 0.56 0.90 0.59 0.10 0.01 0.01 0.04 0.05 0.03 0.02 0.01 0.02 0.08 0.08 0.17 0.16 0.02 0.00 0.01 0.00 0.00 0.00 0.01 0.03 0.03 0.16 0.29 0.57
0.06 0.10 0.14 0.15 0.19 0.24 0.35 0.36 0.31 0.36 0.54 0.78 0.92 1.05 1.02 0.84 0.74 0.64 0.90 0.98 0.89 0.35 0.02 0.01 0.02 0.04 0.02 0.02 0.04 0.05 0.12 0.17 0.31 0.31 0.31 0.16 0.03 0.02 0.04 0.02 0.01 0.03 0.12 0.24 0.34 0.62 0.36
0.08 0.13 0.16 0.18 0.25 0.37 0.45 0.40 0.51 0.61 0.66 0.64 1.09 0.99 0.99 0.77 0.67 1.09 1.35 0.89 0.36 0.05 0.00 0.00 0.01 0.02 0.03 0.02 0.05 0.04 0.21 0.15 0.11 0.21 0.26 0.16 0.07 0.02 0.01 0.01 0.03 0.03 0.05 0.22 0.17 0.18 0.15
0.09 0.14 0.20 0.22 0.33 0.37 0.37 0.38 0.36 0.49 0.69 0.94 1.23 1.27 1.15 1.01 0.89 1.17 1.23 0.69 0.13 0.00 0.00 0.01 0.04 0.10 0.06 0.03 0.05 0.07 0.10 0.10 0.02 0.03 0.13 0.12 0.07 0.03 0.00 0.00 0.10 0.19 0.22 0.14 0.43 0.17 0.26
0.10 0.16 0.20 0.19 0.21 0.35 0.37 0.35 0.46 0.73 0.95 1.04 1.33 1.72 1.12 0.78 1.04 1.29 0.89 0.36 0.02 0.01 0.01 0.03 0.07 0.05 0.01 0.01 0.04 0.03 0.03 0.00 0.00 0.00 0.01 0.03 0.17 0.10 0.07 0.09 0.09 0.17 0.10 0.36 1.00 0.62 0.17
0.11 0.17 0.17 0.21 0.27 0.42 0.50 0.51 0.64 0.85 0.95 1.69 1.23 1.78 1.15 0.87 1.39 1.37 0.81 0.27 0.00 0.00 0.02 0.05 0.05 0.04 0.00 0.00 0.00 0.00 0.00 0.00 0.00 0.00 0.01 0.01 0.09 0.12 0.29 0.14 0.07 0.23 0.31 0.28 0.49 0.45 0.32
0.11 0.16 0.15 0.24 0.33 0.45 0.66 0.62 0.68 1.01 1.33 2.15 1.93 1.35 1.10 1.10 1.65 0.98 0.35 0.06 0.01 0.01 0.03 0.10 0.10 0.04 0.00 0.00 0.00 0.00 0.00 0.00 0.00 0.00 0.01 0.01 0.17 0.21 0.16 0.06 0.06 0.11 0.17 0.16 0.48 0.44 0.32
0.12 0.13 0.13 0.22 0.35 0.44 0.61 0.53 0.53 0.99 1.58 1.93 1.79 1.40 1.39 0.70 0.61 0.31 0.16 0.02 0.02 0.03 0.06 0.12 0.08 0.04 0.01 0.00 0.00 0.00 0.00 0.00 0.00 0.00 0.00 0.05 0.29 0.36 0.29 0.30 0.33 0.28 0.22 0.33 0.37 0.70 0.61
0.10 0.11 0.12 0.16 0.29 0.36 0.44 0.36 0.46 1.03 1.37 1.83 1.55 1.87 2.16 1.44 0.28 0.04 0.06 0.03 0.03 0.03 0.04 0.11 0.13 0.08 0.04 0.02 0.00 0.00 0.00 0.00 0.00 0.00 0.01 0.20 0.40 0.59 0.58 0.51 0.70 0.50 0.27 0.48 0.86 0.92 0.32
0.10 0.09 0.11 0.15 0.16 0.23 0.27 0.31 0.72 1.28 1.43 1.47 1.15 0.77 0.56 0.74 0.27 0.01 0.03 0.04 0.03 0.07 0.09 0.14 0.11 0.09 0.05 0.03 0.01 0.00 0.00 0.00 0.00 0.02 0.13 0.45 0.81 0.91 0.42 0.32 0.62 0.60 0.30 0.42 0.89 0.46 0.28
0.09 0.08 0.11 0.12 0.09 0.13 0.18 0.24 0.61 1.39 1.67 1.16 0.90 0.42 0.05 0.04 0.03 0.01 0.02 0.03 0.03 0.09 0.14 0.13 0.07 0.04 0.05 0.04 0.01 0.00 0.00 0.00 0.00 0.02 0.11 0.33 0.73 0.74 0.46 0.33 0.34 0.33 0.13 0.23 0.53 0.37 0.22
0.09 0.08 0.12 0.10 0.07 0.10 0.10 0.27 0.58 1.40 1.81 1.28 0.74 0.39 0.06 0.04 0.02 0.01 0.00 0.00 0.01 0.09 0.07 0.04 0.05 0.08 0.05 0.03 0.03 0.02 0.01 0.02 0.01 0.02 0.11 0.33 0.50 0.78 0.65 0.40 0.38 0.32 0.08 0.17 0.38 0.32 0.16
0.09 0.09 0.11 0.08 0.05 0.08 0.08 0.31 0.62 1.16 1.50 1.26 0.72 0.44 0.17 0.09 0.03 0.01 0.01 0.01 0.01 0.06 0.08 0.06 0.03 0.06 0.04 0.04 0.05 0.06 0.02 0.02 0.02 0.01 0.03 0.16 0.36 0.68 0.92 0.75 0.74 0.43 0.13 0.16 0.17 0.16 0.10
0.09 0.10 0.08 0.05 0.04 0.05 0.07 0.32 0.48 0.62 0.68 0.75 0.56 0.41 0.18 0.07 0.03 0.03 0.03 0.02 0.03 0.05 0.08 0.10 0.05 0.01 0.05 0.09 0.17 0.19 0.19 0.05 0.00 0.01 0.01 0.03 0.18 0.31 0.38 0.33 0.17 0.11 0.13 0.11 0.08 0.10 0.03
0.08 0.09 0.07 0.03 0.03 0.04 0.06 0.20 0.34 0.46 0.51 0.65 0.66 0.63 0.20 0.07 0.03 0.02 0.03 0.02 0.07 0.13 0.12 0.11 0.09 0.06 0.13 0.22 0.33 0.23 0.09 0.03 0.00 0.00 0.00 0.00 0.03 0.13 0.09 0.13 0.07 0.03 0.02 0.02 0.02 0.01 0.00
0.08 0.07 0.04 0.02 0.03 0.04 0.04 0.10 0.33 0.32 0.39 0.53 0.62 0.50 0.19 0.07 0.01 0.01 0.02 0.01 0.04 0.13 0.19 0.19 0.16 0.19 0.20 0.33 0.32 0.14 0.02 0.00 0.00 0.00 0.00 0.00 0.01 0.03 0.03 0.03 0.01 0.00 0.00 0.00 0.01 0.02 0.00
0.08 0.05 0.03 0.02 0.02 0.03 0.03 0.09 0.30 0.25 0.34 0.44 0.40 0.40 0.24 0.05 0.01 0.01 0.00 0.01 0.06 0.12 0.21 0.24 0.28 0.30 0.27 0.34 0.28 0.13 0.02 0.00 0.00 0.00 0.00 0.00 0.01 0.01 0.00 0.00 0.00 0.00 0.00 0.00 0.00 0.00 0.00
0.07 0.04 0.03 0.02 0.02 0.03 0.03 0.05 0.28 0.24 0.26 0.38 0.30 0.31 0.21 0.06 0.02 0.00 0.00 0.00 0.03 0.09 0.21 0.24 0.27 0.21 0.25 0.22 0.14 0.10 0.03 0.00 0.00 0.00 0.00 0.00 0.00 0.00 0.00 0.00 0.00 0.00 0.00 0.00 0.00 0.00 0.00

GFSGBSN_prec_precacc_027.txt.gz
Total_Precipitation_Accumulation
0.09 0.07 0.09 0.09 0.08 0.08 0.08 0.09 0.10 0.09 0.08 0.09 0.11 0.10 0.09 0.08 0.09 0.12 0.13 0.10 0.12 0.12 0.09 0.03 0.00 0.01 0.01 0.07 0.04 0.00 0.00 0.04 0.13 0.30 0.04 0.01 0.00 0.00 0.00 0.00 0.00 0.00 0.00 0.00 0.00 0.00 0.00
0.06 0.06 0.05 0.06 0.07 0.08 0.10 0.12 0.12 0.12 0.11 0.11 0.11 0.11 0.12 0.12 0.10 0.09 0.11 0.08 0.08 0.12 0.15 0.10 0.01 0.01 0.01 0.02 0.00 0.00 0.00 0.00 0.03 0.20 0.09 0.02 0.01 0.00 0.00 0.00 0.01 0.00 0.00 0.00 0.00 0.00 0.00
0.05 0.05 0.05 0.07 0.10 0.11 0.12 0.14 0.15 0.15 0.15 0.14 0.14 0.13 0.11 0.11 0.13 0.12 0.13 0.11 0.10 0.12 0.13 0.14 0.03 0.01 0.00 0.00 0.00 0.00 0.00 0.00 0.01 0.16 0.16 0.07 0.03 0.04 0.04 0.01 0.00 0.01 0.04 0.01 0.00 0.00 0.00
0.04 0.06 0.07 0.07 0.10 0.10 0.12 0.13 0.13 0.16 0.16 0.16 0.18 0.17 0.15 0.15 0.14 0.15 0.14 0.15 0.15 0.17 0.23 0.23 0.07 0.02 0.01 0.00 0.00 0.00 0.00 0.00 0.00 0.09 0.26 0.18 0.03 0.05 0.04 0.02 0.00 0.02 0.03 0.01 0.00 0.00 0.00
0.06 0.07 0.06 0.07 0.08 0.08 0.11 0.11 0.14 0.13 0.14 0.19 0.19 0.15 0.15 0.17 0.19 0.18 0.19 0.23 0.24 0.27 0.39 0.41 0.12 0.02 0.00 0.00 0.00 0.00 0.00 0.00 0.01 0.05 0.24 0.14 0.06 0.01 0.02 0.04 0.02 0.02 0.01 0.01 0.00 0.00 0.00
0.05 0.06 0.05 0.06 0.08 0.10 0.12 0.14 0.15 0.14 0.17 0.21 0.19 0.19 0.19 0.22 0.28 0.33 0.39 0.44 0.47 0.38 0.65 0.73 0.15 0.04 0.00 0.00 0.00 0.00 0.00 0.00 0.00 0.02 0.13 0.15 0.09 0.03 0.01 0.03 0.02 0.01 0.02 0.01 0.00 0.00 0.01
0.03 0.05 0.06 0.09 0.11 0.15 0.18 0.18 0.17 0.17 0.20 0.23 0.24 0.25 0.28 0.36 0.34 0.45 0.66 0.87 0.87 0.79 0.68 0.45 0.15 0.00 0.00 0.00 0.00 0.00 0.00 0.00 0.00 0.02 0.01 0.06 0.10 0.05 0.00 0.00 0.00 0.00 0.00 0.01 0.00 0.01 0.04
0.03 0.03 0.07 0.12 0.18 0.19 0.18 0.17 0.18 0.18 0.19 0.25 0.28 0.33 0.33 0.30 0.32 0.63 0.93 0.88 0.49 0.55 0.47 0.18 0.05 0.01 0.00 0.00 0.00 0.00 0.00 0.00 0.01 0.01 0.00 0.01 0.02 0.01 0.00 0.00 0.00 0.00 0.01 0.01 0.01 0.01 0.07
0.03 0.04 0.11 0.20 0.20 0.20 0.20 0.23 0.24 0.29 0.31 0.34 0.35 0.33 0.34 0.33 0.44 0.83 0.71 0.48 0.33 0.57 0.49 0.27 0.11 0.02 0.00 0.00 0.00 0.00 0.00 0.00 0.00 0.00 0.01 0.01 0.00 0.00 0.00 0.00 0.00 0.00 0.00 0.00 0.01 0.04 0.06
0.04 0.05 0.09 0.11 0.18 0.24 0.28 0.32 0.42 0.47 0.48 0.58 0.43 0.41 0.42 0.60 1.06 0.68 0.57 0.31 0.65 0.77 0.44 0.31 0.15 0.03 0.00 0.01 0.02 0.00 0.00 0.00 0.01 0.01 0.01 0.02 0.00 0.00 0.00 0.00 0.00 0.00 0.00 0.00 0.01 0.06 0.03
0.04 0.07 0.10 0.11 0.12 0.19 0.27 0.35 0.46 0.55 0.59 0.53 0.57 0.53 0.60 1.01 1.20 0.71 0.50 0.45 1.03 1.06 0.47 0.23 0.09 0.01 0.01 0.01 0.01 0.00 0.00 0.04 0.02 0.00 0.03 0.04 0.00 0.00 0.00 0.00 0.00 0.00 0.00 0.00 0.04 0.29 0.26
0.05 0.10 0.14 0.15 0.18 0.26 0.27 0.30 0.37 0.38 0.45 0.62 0.82 0.83 1.06 0.92 0.88 0.57 0.55 0.79 1.39 1.23 0.59 0.29 0.07 0.05 0.06 0.04 0.02 0.01 0.02 0.08 0.08 0.17 0.16 0.02 0.00 0.01 0.00 0.00 0.00 0.01 0.03 0.03 0.16 0.29 0.57
0.06 0.13 0.17 0.18 0.22 0.26 0.37 0.38 0.33 0.36 0.54 0.79 0.93 1.07 1.11 0.97 0.78 0.66 0.98 1.25 1.28 0.79 0.28 0.09 0.03 0.05 0.03 0.03 0.05 0.05 0.12 0.17 0.31 0.32 0.32 0.16 0.03 0.02 0.04 0.02 0.01 0.03 0.12 0.24 0.34 0.62 0.36
0.08 0.16 0.20 0.22 0.28 0.39 0.47 0.43 0.52 0.62 0.66 0.65 1.11 1.02 1.04 0.85 0.76 1.16 1.40 1.04 0.53 0.25 0.11 0.02 0.02 0.03 0.03 0.03 0.06 0.05 0.21 0.15 0.11 0.21 0.27 0.16 0.07 0.02 0.01 0.01 0.03 0.03 0.06 0.22 0.17 0.18 0.15
0.10 0.17 0.25 0.26 0.36 0.38 0.39 0.40 0.36 0.49 0.70 0.96 1.26 1.31 1.31 1.12 0.99 1.20 1.27 0.76 0.54 0.14 0.02 0.02 0.07 0.12 0.07 0.03 0.06 0.08 0.11 0.10 0.02 0.03 0.13 0.12 0.07 0.03 0.00 0.00 0.10 0.19 0.22 0.14 0.43 0.17 0.26
0.11 0.19 0.24 0.22 0.24 0.36 0.38 0.38 0.46 0.74 0.98 1.09 1.37 1.75 1.25 0.92 1.08 1.32 0.93 0.51 0.40 0.06 0.01 0.03 0.10 0.06 0.01 0.02 0.04 0.04 0.04 0.00 0.00 0.00 0.01 0.03 0.17 0.10 0.07 0.09 0.09 0.17 0.10 0.36 1.00 0.62 0.17
0.12 0.19 0.20 0.24 0.28 0.43 0.51 0.52 0.64 0.86 0.99 1.75 1.25 1.87 1.23 0.91 1.41 1.41 0.87 0.61 0.19 0.01 0.02 0.05 0.05 0.04 0.00 0.00 0.00 0.00 0.00 0.00 0.00 0.00 0.01 0.01 0.09 0.12 0.29 0.14 0.07 0.23 0.31 0.29 0.49 0.45 0.32
0.12 0.17 0.18 0.26 0.35 0.45 0.67 0.63 0.69 1.04 1.41 2.20 1.95 1.46 1.14 1.12 1.66 1.00 0.50 0.48 0.18 0.04 0.04 0.10 0.10 0.04 0.00 0.00 0.00 0.00 0.00 0.00 0.00 0.00 0.01 0.01 0.17 0.22 0.16 0.06 0.06 0.11 0.17 0.16 0.49 0.45 0.32
0.13 0.14 0.16 0.23 0.37 0.45 0.61 0.54 0.54 1.01 1.65 1.95 1.80 1.43 1.52 0.78 0.63 0.43 0.39 0.14 0.09 0.06 0.07 0.12 0.08 0.04 0.01 0.00 0.00 0.00 0.00 0.00 0.00 0.00 0.00 0.05 0.29 0.36 0.29 0.31 0.33 0.28 0.22 0.33 0.37 0.76 0.66
0.11 0.11 0.13 0.17 0.31 0.36 0.44 0.36 0.46 1.03 1.40 1.83 1.56 1.88 2.17 1.45 0.31 0.17 0.21 0.11 0.06 0.05 0.05 0.11 0.13 0.08 0.04 0.02 0.00 0.00 0.00 0.00 0.00 0.00 0.01 0.20 0.40 0.59 0.58 0.51 0.71 0.51 0.27 0.48 0.90 1.09 0.36
0.11 0.10 0.12 0.16 0.18 0.23 0.27 0.31 0.72 1.28 1.44 1.47 1.15 0.78 0.57 0.74 0.30 0.09 0.15 0.10 0.04 0.08 0.09 0.14 0.11 0.09 0.05 0.03 0.01 0.00 0.00 0.00 0.00 0.02 0.13 0.45 0.81 0.91 0.42 0.32 0.62 0.60 0.30 0.42 0.95 0.52 0.42
0.09 0.08 0.11 0.13 0.10 0.14 0.18 0.24 0.61 1.39 1.67 1.16 0.90 0.42 0.06 0.04 0.03 0.01 0.03 0.05 0.04 0.09 0.14 0.13 0.07 0.04 0.05 0.04 0.01 0.00 0.00 0.00 0.00 0.02 0.11 0.33 0.74 0.74 0.46 0.33 0.34 0.33 0.13 0.24 0.54 0.38 0.25
0.09 0.08 0.12 0.10 0.07 0.11 0.11 0.27 0.58 1.40 1.82 1.28 0.74 0.39 0.07 0.04 0.03 0.02 0.01 0.00 0.01 0.09 0.07 0.04 0.05 0.08 0.05 0.04 0.03 0.02 0.01 0.02 0.01 0.02 0.11 0.33 0.50 0.79 0.66 0.40 0.38 0.32 0.08 0.17 0.38 0.32 0.16
0.10 0.09 0.11 0.08 0.05 0.08 0.09 0.32 0.62 1.16 1.51 1.27 0.73 0.45 0.18 0.09 0.03 0.01 0.01 0.01 0.01 0.06 0.08 0.06 0.03 0.07 0.05 0.04 0.05 0.06 0.02 0.02 0.02 0.01 0.03 0.16 0.37 0.73 0.93 0.76 0.75 0.44 0.13 0.16 0.17 0.16 0.10
0.09 0.11 0.09 0.05 0.04 0.05 0.08 0.32 0.48 0.62 0.68 0.76 0.57 0.41 0.19 0.08 0.03 0.03 0.03 0.02 0.03 0.05 0.08 0.10 0.05 0.02 0.05 0.09 0.17 0.19 0.19 0.05 0.00 0.01 0.01 0.04 0.19 0.37 0.41 0.34 0.17 0.11 0.13 0.11 0.08 0.10 0.03
0.09 0.10 0.07 0.03 0.03 0.04 0.06 0.20 0.34 0.46 0.51 0.65 0.66 0.63 0.20 0.07 0.04 0.02 0.03 0.02 0.07 0.13 0.12 0.11 0.09 0.06 0.13 0.22 0.34 0.23 0.09 0.03 0.01 0.00 0.00 0.01 0.05 0.18 0.12 0.16 0.08 0.03 0.02 0.02 0.02 0.01 0.00
0.09 0.08 0.04 0.03 0.03 0.04 0.04 0.10 0.33 0.32 0.39 0.53 0.63 0.50 0.19 0.07 0.01 0.01 0.02 0.01 0.04 0.13 0.19 0.20 0.16 0.19 0.20 0.33 0.33 0.14 0.02 0.00 0.00 0.00 0.00 0.01 0.03 0.06 0.07 0.07 0.01 0.00 0.00 0.00 0.01 0.02 0.00
0.09 0.06 0.03 0.03 0.03 0.03 0.04 0.09 0.30 0.25 0.34 0.44 0.40 0.41 0.24 0.05 0.01 0.01 0.00 0.01 0.06 0.12 0.22 0.24 0.29 0.30 0.27 0.34 0.29 0.13 0.02 0.01 0.00 0.00 0.00 0.00 0.01 0.02 0.02 0.01 0.00 0.00 0.00 0.00 0.00 0.00 0.00
0.08 0.05 0.03 0.02 0.02 0.03 0.04 0.06 0.28 0.24 0.26 0.38 0.31 0.31 0.22 0.07 0.02 0.00 0.00 0.00 0.03 0.09 0.22 0.24 0.29 0.21 0.25 0.22 0.14 0.10 0.04 0.01 0.00 0.01 0.00 0.00 0.00 0.00 0.00 0.00 0.00 0.00 0.00 0.00 0.00 0.00 0.00

GFSGBSN_prec_precacc_030.txt.gz
Total_Precipitation_Accumulation
0.09 0.08 0.09 0.10 0.09 0.09 0.09 0.10 0.11 0.11 0.11 0.12 0.14 0.13 0.11 0.09 0.09 0.12 0.13 0.10 0.12 0.12 0.10 0.12 0.21 0.03 0.02 0.07 0.05 0.00 0.00 0.04 0.15 0.31 0.04 0.01 0.00 0.00 0.00 0.00 0.00 0.00 0.00 0.00 0.00 0.00 0.00
0.07 0.07 0.06 0.07 0.08 0.09 0.11 0.12 0.13 0.14 0.13 0.14 0.14 0.15 0.14 0.13 0.11 0.10 0.11 0.08 0.08 0.12 0.16 0.14 0.31 0.13 0.01 0.02 0.00 0.00 0.01 0.02 0.08 0.21 0.09 0.02 0.01 0.00 0.00 0.00 0.01 0.00 0.00 0.00 0.00 0.00 0.00
0.05 0.06 0.06 0.08 0.10 0.12 0.13 0.16 0.17 0.16 0.17 0.16 0.18 0.16 0.11 0.12 0.16 0.15 0.13 0.11 0.10 0.12 0.13 0.21 0.34 0.11 0.00 0.00 0.00 0.00 0.01 0.03 0.05 0.18 0.16 0.07 0.03 0.04 0.04 0.01 0.00 0.01 0.04 0.01 0.00 0.00 0.00
0.05 0.07 0.07 0.08 0.11 0.12 0.13 0.15 0.14 0.16 0.18 0.19 0.22 0.19 0.16 0.17 0.16 0.16 0.14 0.15 0.15 0.17 0.24 0.28 0.46 0.19 0.02 0.00 0.00 0.00 0.00 0.00 0.00 0.10 0.27 0.20 0.04 0.05 0.04 0.02 0.00 0.02 0.03 0.01 0.00 0.00 0.00
0.06 0.07 0.07 0.08 0.10 0.10 0.12 0.13 0.14 0.14 0.16 0.22 0.22 0.17 0.17 0.19 0.19 0.19 0.20 0.23 0.24 0.27 0.40 0.48 0.52 0.13 0.01 0.00 0.00 0.00 0.00 0.00 0.01 0.09 0.38 0.20 0.09 0.03 0.02 0.04 0.02 0.02 0.01 0.01 0.00 0.00 0.00
0.05 0.06 0.05 0.08 0.09 0.11 0.13 0.15 0.16 0.15 0.19 0.24 0.22 0.21 0.22 0.24 0.29 0.35 0.41 0.44 0.47 0.38 0.66 0.93 0.61 0.14 0.00 0.00 0.00 0.00 0.00 0.00 0.01 0.10 0.24 0.22 0.18 0.08 0.02 0.03 0.02 0.01 0.02 0.01 0.00 0.00 0.01
0.03 0.05 0.07 0.11 0.13 0.16 0.19 0.19 0.18 0.18 0.22 0.26 0.26 0.26 0.31 0.38 0.34 0.47 0.69 0.87 0.87 0.80 0.73 0.75 0.42 0.05 0.00 0.00 0.00 0.00 0.00 0.00 0.03 0.08 0.08 0.16 0.19 0.14 0.06 0.00 0.00 0.00 0.00 0.01 0.00 0.01 0.04
0.03 0.04 0.08 0.14 0.19 0.20 0.20 0.19 0.19 0.19 0.20 0.25 0.29 0.34 0.36 0.32 0.34 0.64 0.94 0.88 0.50 0.56 0.55 0.37 0.18 0.02 0.00 0.00 0.00 0.00 0.00 0.01 0.03 0.02 0.02 0.05 0.10 0.05 0.04 0.00 0.00 0.00 0.01 0.01 0.01 0.01 0.07
0.04 0.05 0.12 0.21 0.22 0.21 0.22 0.24 0.26 0.30 0.32 0.35 0.36 0.34 0.38 0.38 0.51 0.87 0.71 0.48 0.34 0.57 0.62 0.43 0.30 0.06 0.00 0.00 0.00 0.00 0.00 0.00 0.00 0.01 0.01 0.02 0.02 0.01 0.00 0.00 0.00 0.00 0.00 0.00 0.01 0.04 0.06
0.04 0.05 0.11 0.13 0.20 0.25 0.29 0.33 0.43 0.50 0.48 0.58 0.44 0.42 0.47 0.68 1.12 0.70 0.57 0.31 0.65 0.81 0.59 0.48 0.41 0.11 0.01 0.01 0.02 0.00 0.00 0.00 0.01 0.01 0.01 0.02 0.00 0.00 0.00 0.00 0.00 0.00 0.00 0.00 0.01 0.06 0.03
0.04 0.07 0.11 0.13 0.14 0.20 0.28 0.36 0.47 0.57 0.60 0.53 0.58 0.54 0.62 1.09 1.28 0.74 0.50 0.46 1.03 1.12 0.60 0.36 0.31 0.06 0.01 0.01 0.01 0.02 0.01 0.04 0.02 0.00 0.03 0.04 0.00 0.00 0.00 0.00 0.00 0.00 0.00 0.00 0.04 0.29 0.26
0.05 0.10 0.15 0.16 0.20 0.27 0.29 0.31 0.38 0.39 0.45 0.62 0.82 0.85 1.12 0.99 0.92 0.58 0.57 0.82 1.40 1.30 0.73 0.54 0.21 0.07 0.07 0.05 0.02 0.02 0.02 0.08 0.08 0.18 0.16 0.02 0.00 0.01 0.00 0.00 0.00 0.01 0.03 0.03 0.16 0.29 0.57
0.06 0.13 0.18 0.20 0.23 0.28 0.38 0.39 0.34 0.36 0.55 0.79 0.94 1.10 1.16 1.03 0.80 0.67 1.00 1.28 1.30 0.86 0.45 0.25 0.09 0.06 0.03 0.04 0.05 0.06 0.13 0.17 0.31 0.32 0.34 0.17 0.03 0.02 0.04 0.02 0.01 0.03 0.12 0.24 0.34 0.62 0.36
0.08 0.16 0.20 0.24 0.28 0.41 0.47 0.44 0.53 0.62 0.67 0.66 1.12 1.05 1.07 0.88 0.77 1.16 1.40 1.05 0.58 0.41 0.22 0.06 0.02 0.04 0.04 0.03 0.07 0.06 0.21 0.15 0.11 0.21 0.27 0.16 0.07 0.02 0.01 0.01 0.03 0.03 0.06 0.22 0.17 0.18 0.15
0.10 0.17 0.25 0.27 0.36 0.39 0.39 0.41 0.37 0.50 0.71 0.97 1.26 1.31 1.31 1.13 1.00 1.20 1.30 0.79 0.71 0.29 0.08 0.04 0.09 0.12 0.08 0.03 0.07 0.08 0.11 0.10 0.02 0.03 0.13 0.12 0.07 0.03 0.00 0.00 0.10 0.19 0.22 0.14 0.43 0.17 0.26
0.11 0.19 0.25 0.23 0.25 0.37 0.39 0.38 0.47 0.77 1.01 1.09 1.37 1.75 1.26 0.92 1.08 1.35 0.97 0.63 0.54 0.11 0.01 0.03 0.12 0.07 0.02 0.02 0.05 0.04 0.04 0.00 0.00 0.00 0.01 0.03 0.17 0.10 0.07 0.09 0.09 0.17 0.10 0.36 1.00 0.62 0.17
0.12 0.19 0.20 0.24 0.29 0.44 0.51 0.52 0.65 0.88 1.01 1.75 1.25 1.87 1.23 0.91 1.41 1.43 0.97 0.76 0.27 0.03 0.02 0.06 0.05 0.04 0.00 0.01 0.00 0.00 0.00 0.00 0.00 0.00 0.01 0.01 0.09 0.12 0.29 0.14 0.07 0.23 0.31 0.29 0.49 0.45 0.32
0.13 0.17 0.18 0.26 0.35 0.46 0.68 0.63 0.69 1.05 1.41 2.20 1.95 1.46 1.14 1.12 1.67 1.03 0.59 0.61 0.29 0.05 0.04 0.10 0.10 0.04 0.00 0.00 0.00 0.00 0.00 0.00 0.00 0.00 0.01 0.01 0.17 0.22 0.16 0.06 0.06 0.11 0.17 0.16 0.49 0.45 0.32
0.13 0.14 0.16 0.23 0.37 0.45 0.62 0.54 0.54 1.01 1.66 1.95 1.80 1.43 1.52 0.78 0.63 0.47 0.52 0.27 0.16 0.08 0.08 0.12 0.08 0.04 0.01 0.00 0.00 0.00 0.00 0.00 0.00 0.00 0.00 0.05 0.29 0.36 0.29 0.31 0.33 0.28 0.22 0.33 0.37 0.76 0.66
0.11 0.11 0.13 0.17 0.31 0.36 0.45 0.36 0.46 1.03 1.40 1.83 1.56 1.88 2.17 1.45 0.32 0.18 0.22 0.12 0.06 0.05 0.05 0.11 0.13 0.08 0.04 0.02 0.00 0.00 0.00 0.00 0.00 0.00 0.01 0.20 0.40 0.59 0.58 0.51 0.71 0.51 0.27 0.48 0.90 1.10 0.36
0.11 0.10 0.12 0.16 0.19 0.23 0.27 0.31 0.72 1.28 1.44 1.47 1.15 0.78 0.57 0.74 0.30 0.09 0.15 0.10 0.04 0.08 0.09 0.14 0.11 0.09 0.05 0.03 0.01 0.00 0.00 0.00 0.00 0.02 0.13 0.45 0.81 0.91 0.42 0.32 0.62 0.60 0.30 0.42 0.95 0.53 0.44
0.10 0.09 0.11 0.13 0.10 0.14 0.18 0.24 0.61 1.39 1.67 1.16 0.90 0.42 0.06 0.04 0.03 0.01 0.03 0.05 0.04 0.09 0.14 0.13 0.07 0.04 0.05 0.04 0.01 0.00 0.00 0.00 0.00 0.02 0.11 0.33 0.74 0.74 0.46 0.33 0.34 0.33 0.13 0.24 0.54 0.38 0.25
0.09 0.09 0.12 0.10 0.07 0.11 0.11 0.27 0.58 1.40 1.82 1.28 0.74 0.39 0.07 0.04 0.03 0.02 0.01 0.00 0.01 0.09 0.07 0.04 0.05 0.08 0.05 0.04 0.03 0.02 0.01 0.02 0.01 0.02 0.11 0.33 0.50 0.79 0.66 0.40 0.38 0.32 0.08 0.17 0.38 0.32 0.16
0.10 0.10 0.11 0.08 0.05 0.08 0.09 0.32 0.62 1.16 1.51 1.27 0.73 0.45 0.18 0.09 0.03 0.01 0.01 0.01 0.01 0.06 0.08 0.06 0.03 0.07 0.05 0.04 0.05 0.06 0.02 0.02 0.02 0.01 0.03 0.16 0.37 0.73 0.93 0.76 0.75 0.44 0.13 0.16 0.17 0.16 0.10
0.10 0.12 0.09 0.05 0.05 0.06 0.08 0.32 0.48 0.62 0.68 0.76 0.57 0.41 0.19 0.08 0.03 0.03 0.03 0.02 0.03 0.05 0.08 0.10 0.05 0.02 0.05 0.09 0.17 0.19 0.19 0.06 0.00 0.01 0.01 0.04 0.19 0.37 0.42 0.35 0.17 0.11 0.13 0.11 0.08 0.10 0.03
0.09 0.10 0.07 0.03 0.04 0.05 0.07 0.20 0.34 0.46 0.51 0.65 0.67 0.63 0.21 0.08 0.04 0.02 0.03 0.02 0.07 0.13 0.12 0.11 0.09 0.06 0.13 0.22 0.34 0.23 0.10 0.03 0.01 0.00 0.00 0.01 0.05 0.21 0.14 0.17 0.08 0.03 0.02 0.02 0.02 0.01 0.00
0.09 0.09 0.05 0.03 0.03 0.04 0.04 0.11 0.33 0.32 0.39 0.53 0.63 0.50 0.19 0.07 0.01 0.01 0.02 0.01 0.04 0.13 0.19 0.20 0.16 0.19 0.20 0.33 0.33 0.14 0.02 0.00 0.00 0.00 0.01 0.02 0.04 0.08 0.08 0.08 0.01 0.00 0.00 0.00 0.01 0.02 0.00
0.09 0.07 0.04 0.03 0.03 0.03 0.04 0.09 0.30 0.25 0.34 0.44 0.40 0.41 0.24 0.06 0.01 0.01 0.00 0.01 0.06 0.12 0.22 0.24 0.29 0.30 0.27 0.34 0.29 0.13 0.02 0.01 0.00 0.00 0.00 0.01 0.01 0.02 0.02 0.02 0.00 0.00 0.00 0.00 0.00 0.00 0.00
0.08 0.05 0.04 0.03 0.02 0.03 0.04 0.06 0.28 0.24 0.26 0.38 0.31 0.31 0.22 0.07 0.02 0.00 0.00 0.00 0.03 0.09 0.22 0.24 0.29 0.21 0.25 0.22 0.14 0.10 0.04 0.01 0.00 0.01 0.00 0.00 0.00 0.00 0.00 0.00 0.00 0.00 0.00 0.00 0.00 0.00 0.00

GFSGBSN_prec_precacc_033.txt.gz
Total_Precipitation_Accumulation
0.10 0.09 0.10 0.11 0.09 0.09 0.10 0.12 0.12 0.12 0.13 0.13 0.16 0.17 0.14 0.11 0.12 0.15 0.15 0.12 0.12 0.12 0.10 0.12 0.24 0.32 0.21 0.08 0.05 0.00 0.01 0.04 0.16 0.32 0.04 0.01 0.00 0.00 0.00 0.00 0.00 0.00 0.00 0.00 0.00 0.00 0.00
0.07 0.08 0.06 0.07 0.08 0.10 0.13 0.14 0.15 0.15 0.14 0.15 0.17 0.18 0.16 0.14 0.16 0.13 0.12 0.10 0.08 0.12 0.16 0.14 0.32 0.53 0.24 0.02 0.00 0.00 0.05 0.04 0.09 0.22 0.09 0.02 0.01 0.00 0.00 0.00 0.01 0.00 0.00 0.00 0.00 0.00 0.00
0.06 0.06 0.06 0.08 0.11 0.14 0.14 0.17 0.18 0.17 0.18 0.18 0.22 0.18 0.13 0.13 0.19 0.18 0.14 0.12 0.10 0.12 0.13 0.21 0.36 0.49 0.15 0.01 0.00 0.00 0.04 0.12 0.09 0.20 0.16 0.07 0.03 0.04 0.04 0.01 0.00 0.01 0.04 0.01 0.00 0.00 0.00
0.06 0.07 0.07 0.08 0.13 0.13 0.14 0.16 0.15 0.17 0.20 0.21 0.25 0.21 0.18 0.19 0.18 0.20 0.15 0.15 0.15 0.17 0.24 0.28 0.47 0.48 0.14 0.01 0.00 0.00 0.01 0.08 0.08 0.19 0.28 0.21 0.05 0.05 0.04 0.02 0.00 0.02 0.03 0.01 0.00 0.00 0.00
0.07 0.07 0.07 0.09 0.12 0.11 0.13 0.14 0.16 0.15 0.18 0.25 0.25 0.20 0.19 0.21 0.21 0.22 0.20 0.23 0.24 0.27 0.40 0.49 0.55 0.33 0.09 0.01 0.00 0.00 0.00 0.02 0.05 0.18 0.46 0.21 0.12 0.03 0.02 0.04 0.02 0.02 0.01 0.01 0.00 0.00 0.00
0.06 0.06 0.05 0.09 0.12 0.13 0.15 0.17 0.17 0.17 0.20 0.26 0.24 0.22 0.23 0.25 0.31 0.38 0.42 0.44 0.47 0.38 0.66 0.93 0.68 0.44 0.04 0.00 0.00 0.00 0.00 0.01 0.07 0.20 0.35 0.31 0.23 0.10 0.02 0.03 0.02 0.01 0.02 0.01 0.00 0.00 0.01
0.04 0.06 0.07 0.12 0.15 0.18 0.21 0.21 0.20 0.20 0.24 0.27 0.26 0.26 0.31 0.40 0.39 0.63 0.72 0.87 0.88 0.80 0.74 0.77 0.49 0.16 0.00 0.00 0.00 0.01 0.00 0.01 0.11 0.19 0.17 0.25 0.24 0.16 0.06 0.00 0.00 0.00 0.00 0.01 0.00 0.01 0.04
0.04 0.05 0.08 0.15 0.22 0.22 0.22 0.21 0.21 0.21 0.23 0.27 0.29 0.34 0.38 0.36 0.43 0.80 0.95 0.88 0.50 0.57 0.55 0.39 0.26 0.08 0.00 0.00 0.00 0.01 0.00 0.03 0.08 0.05 0.11 0.15 0.18 0.09 0.07 0.02 0.00 0.00 0.01 0.01 0.01 0.01 0.07
0.04 0.05 0.12 0.23 0.24 0.23 0.24 0.26 0.27 0.31 0.36 0.35 0.36 0.34 0.40 0.43 0.58 0.91 0.71 0.48 0.34 0.57 0.62 0.47 0.47 0.18 0.00 0.00 0.00 0.00 0.00 0.01 0.04 0.03 0.04 0.09 0.07 0.04 0.09 0.05 0.01 0.00 0.00 0.00 0.01 0.04 0.06
0.04 0.05 0.11 0.14 0.22 0.27 0.31 0.35 0.44 0.52 0.50 0.58 0.44 0.43 0.47 0.74 1.20 0.73 0.57 0.32 0.65 0.81 0.62 0.61 0.64 0.22 0.01 0.01 0.02 0.00 0.01 0.01 0.03 0.03 0.04 0.07 0.01 0.05 0.03 0.06 0.00 0.00 0.00 0.00 0.01 0.06 0.03
0.04 0.07 0.11 0.15 0.16 0.22 0.30 0.37 0.49 0.59 0.60 0.55 0.59 0.55 0.69 1.25 1.40 0.77 0.51 0.46 1.03 1.13 0.69 0.47 0.49 0.18 0.02 0.01 0.01 0.02 0.02 0.04 0.03 0.00 0.04 0.05 0.00 0.02 0.03 0.00 0.00 0.00 0.00 0.00 0.04 0.29 0.26
0.05 0.11 0.16 0.18 0.21 0.28 0.29 0.31 0.39 0.40 0.47 0.65 0.85 0.91 1.20 1.03 0.94 0.59 0.57 0.83 1.40 1.33 0.89 0.76 0.42 0.13 0.09 0.05 0.02 0.02 0.03 0.08 0.09 0.18 0.16 0.02 0.00 0.01 0.00 0.00 0.00 0.01 0.03 0.03 0.16 0.29 0.57
0.06 0.13 0.18 0.21 0.23 0.29 0.39 0.40 0.36 0.39 0.58 0.81 0.97 1.15 1.20 1.05 0.81 0.67 1.00 1.28 1.32 0.94 0.59 0.41 0.23 0.08 0.04 0.05 0.06 0.07 0.13 0.17 0.31 0.33 0.35 0.17 0.03 0.02 0.04 0.02 0.01 0.03 0.12 0.24 0.34 0.62 0.36
0.08 0.16 0.21 0.24 0.29 0.42 0.47 0.44 0.54 0.64 0.68 0.66 1.12 1.05 1.07 0.88 0.77 1.16 1.41 1.07 0.65 0.51 0.37 0.18 0.04 0.04 0.04 0.04 0.08 0.07 0.22 0.16 0.11 0.21 0.27 0.16 0.08 0.02 0.01 0.01 0.03 0.03 0.06 0.22 0.17 0.18 0.15
0.10 0.17 0.25 0.27 0.37 0.40 0.40 0.41 0.37 0.52 0.72 0.97 1.26 1.31 1.31 1.13 1.00 1.20 1.31 0.82 0.81 0.47 0.22 0.08 0.10 0.12 0.09 0.04 0.08 0.10 0.11 0.10 0.02 0.03 0.13 0.12 0.07 0.03 0.00 0.00 0.10 0.19 0.22 0.14 0.43 0.17 0.26
0.11 0.19 0.25 0.23 0.25 0.37 0.39 0.38 0.47 0.77 1.01 1.09 1.37 1.75 1.26 0.92 1.08 1.35 0.98 0.70 0.59 0.13 0.02 0.03 0.14 0.08 0.02 0.02 0.05 0.05 0.05 0.00 0.00 0.00 0.01 0.03 0.17 0.10 0.07 0.09 0.09 0.17 0.10 0.36 1.00 0.62 0.17
0.12 0.19 0.20 0.24 0.29 0.44 0.52 0.52 0.65 0.88 1.01 1.75 1.25 1.87 1.23 0.91 1.41 1.43 0.98 0.79 0.30 0.03 0.02 0.06 0.05 0.04 0.00 0.01 0.00 0.00 0.00 0.00 0.00 0.00 0.01 0.01 0.09 0.12 0.29 0.14 0.07 0.23 0.31 0.29 0.49 0.45 0.32
0.13 0.17 0.18 0.26 0.35 0.46 0.68 0.63 0.69 1.05 1.41 2.20 1.95 1.46 1.14 1.12 1.67 1.06 0.61 0.61 0.29 0.05 0.04 0.10 0.10 0.04 0.00 0.00 0.00 0.00 0.00 0.00 0.00 0.00 0.01 0.01 0.17 0.22 0.16 0.06 0.06 0.11 0.17 0.16 0.49 0.45 0.32
0.13 0.14 0.16 0.23 0.37 0.45 0.62 0.54 0.54 1.01 1.66 1.95 1.80 1.43 1.52 0.78 0.63 0.48 0.54 0.27 0.16 0.08 0.08 0.12 0.08 0.04 0.01 0.00 0.00 0.00 0.00 0.00 0.00 0.00 0.00 0.05 0.29 0.36 0.29 0.31 0.33 0.28 0.22 0.33 0.37 0.76 0.66
0.11 0.11 0.13 0.17 0.31 0.36 0.45 0.36 0.46 1.03 1.40 1.83 1.56 1.88 2.17 1.45 0.32 0.18 0.22 0.12 0.06 0.05 0.05 0.11 0.13 0.08 0.04 0.02 0.00 0.00 0.00 0.00 0.00 0.00 0.01 0.20 0.40 0.59 0.58 0.51 0.71 0.51 0.27 0.48 0.90 1.11 0.36
0.11 0.10 0.12 0.16 0.19 0.23 0.27 0.31 0.72 1.28 1.44 1.47 1.15 0.78 0.57 0.74 0.30 0.09 0.15 0.10 0.04 0.08 0.09 0.14 0.11 0.09 0.05 0.03 0.01 0.00 0.00 0.00 0.00 0.02 0.13 0.45 0.81 0.91 0.42 0.32 0.62 0.60 0.30 0.42 0.95 0.53 0.44
0.10 0.09 0.11 0.13 0.10 0.14 0.18 0.24 0.61 1.39 1.67 1.16 0.90 0.42 0.06 0.04 0.03 0.01 0.03 0.05 0.04 0.09 0.14 0.13 0.07 0.04 0.05 0.04 0.01 0.00 0.00 0.00 0.00 0.02 0.11 0.33 0.74 0.74 0.46 0.33 0.34 0.33 0.13 0.24 0.54 0.38 0.25
0.09 0.09 0.12 0.10 0.07 0.11 0.11 0.27 0.58 1.40 1.82 1.28 0.74 0.39 0.07 0.04 0.03 0.02 0.01 0.00 0.01 0.09 0.07 0.04 0.05 0.08 0.05 0.04 0.03 0.02 0.01 0.02 0.01 0.02 0.11 0.33 0.50 0.79 0.66 0.40 0.38 0.32 0.08 0.17 0.38 0.32 0.16
0.10 0.10 0.11 0.08 0.05 0.08 0.09 0.32 0.62 1.16 1.51 1.27 0.73 0.46 0.18 0.09 0.03 0.01 0.01 0.01 0.01 0.06 0.08 0.06 0.03 0.07 0.05 0.04 0.05 0.06 0.02 0.02 0.02 0.01 0.03 0.16 0.37 0.73 0.93 0.76 0.75 0.44 0.13 0.16 0.17 0.16 0.10
0.10 0.12 0.09 0.05 0.05 0.06 0.08 0.32 0.48 0.62 0.68 0.76 0.57 0.41 0.19 0.08 0.03 0.03 0.03 0.02 0.03 0.05 0.08 0.10 0.05 0.02 0.05 0.09 0.17 0.20 0.20 0.06 0.00 0.01 0.01 0.04 0.19 0.38 0.43 0.35 0.17 0.11 0.13 0.11 0.08 0.10 0.03
0.09 0.10 0.08 0.03 0.04 0.05 0.07 0.20 0.34 0.46 0.51 0.65 0.67 0.63 0.21 0.08 0.04 0.02 0.03 0.02 0.07 0.13 0.12 0.11 0.09 0.06 0.13 0.22 0.34 0.23 0.10 0.03 0.01 0.00 0.00 0.01 0.05 0.23 0.16 0.17 0.08 0.03 0.02 0.02 0.02 0.01 0.00
0.10 0.09 0.06 0.04 0.03 0.04 0.04 0.11 0.33 0.32 0.39 0.53 0.63 0.50 0.19 0.07 0.01 0.01 0.02 0.01 0.04 0.13 0.19 0.20 0.16 0.19 0.20 0.33 0.33 0.14 0.02 0.00 0.00 0.00 0.01 0.03 0.05 0.09 0.10 0.10 0.01 0.00 0.00 0.00 0.01 0.02 0.00
0.10 0.07 0.05 0.04 0.03 0.03 0.04 0.09 0.30 0.25 0.34 0.44 0.40 0.41 0.24 0.06 0.01 0.01 0.00 0.01 0.06 0.12 0.22 0.24 0.29 0.30 0.27 0.34 0.29 0.13 0.02 0.01 0.00 0.00 0.00 0.01 0.02 0.02 0.03 0.03 0.00 0.00 0.00 0.00 0.00 0.00 0.00
0.09 0.05 0.05 0.04 0.04 0.04 0.04 0.06 0.29 0.24 0.27 0.38 0.31 0.31 0.22 0.08 0.02 0.00 0.00 0.00 0.03 0.09 0.22 0.24 0.29 0.21 0.25 0.22 0.14 0.10 0.04 0.01 0.00 0.01 0.00 0.00 0.00 0.00 0.00 0.00 0.00 0.00 0.00 0.00 0.00 0.00 0.00

GFSGBSN_prec_precacc_036.txt.gz
Total_Precipitation_Accumulation
0.10 0.10 0.10 0.11 0.09 0.10 0.12 0.14 0.13 0.13 0.13 0.14 0.18 0.18 0.16 0.14 0.17 0.19 0.16 0.14 0.14 0.13 0.10 0.12 0.24 0.32 0.51 0.34 0.07 0.01 0.01 0.05 0.16 0.33 0.05 0.02 0.00 0.00 0.00 0.00 0.00 0.00 0.00 0.00 0.00 0.00 0.00
0.09 0.08 0.07 0.08 0.09 0.12 0.15 0.15 0.16 0.16 0.15 0.18 0.18 0.19 0.17 0.15 0.21 0.16 0.13 0.12 0.10 0.13 0.16 0.14 0.32 0.54 0.37 0.17 0.02 0.00 0.06 0.06 0.10 0.24 0.09 0.03 0.01 0.00 0.00 0.00 0.01 0.00 0.00 0.00 0.00 0.00 0.00
0.07 0.06 0.07 0.09 0.11 0.16 0.16 0.18 0.19 0.18 0.20 0.19 0.23 0.20 0.15 0.14 0.23 0.23 0.16 0.14 0.12 0.13 0.14 0.21 0.37 0.52 0.26 0.06 0.01 0.00 0.05 0.20 0.13 0.21 0.16 0.07 0.03 0.04 0.04 0.01 0.00 0.01 0.04 0.01 0.00 0.00 0.00
0.06 0.08 0.08 0.09 0.13 0.16 0.17 0.18 0.17 0.19 0.22 0.22 0.26 0.23 0.19 0.20 0.20 0.23 0.16 0.17 0.16 0.18 0.25 0.29 0.49 0.56 0.21 0.03 0.01 0.00 0.03 0.16 0.23 0.30 0.31 0.21 0.05 0.05 0.04 0.02 0.00 0.02 0.03 0.01 0.00 0.00 0.00
0.07 0.08 0.08 0.09 0.13 0.15 0.16 0.16 0.17 0.17 0.19 0.26 0.26 0.21 0.19 0.22 0.23 0.24 0.22 0.26 0.25 0.29 0.41 0.50 0.56 0.39 0.13 0.08 0.03 0.00 0.03 0.11 0.15 0.31 0.54 0.24 0.14 0.05 0.02 0.04 0.02 0.02 0.01 0.01 0.00 0.00 0.00
0.07 0.07 0.06 0.09 0.14 0.16 0.17 0.19 0.19 0.19 0.22 0.28 0.27 0.22 0.23 0.26 0.35 0.43 0.47 0.45 0.47 0.38 0.67 0.94 0.69 0.51 0.09 0.02 0.05 0.01 0.02 0.13 0.21 0.31 0.49 0.33 0.26 0.11 0.02 0.03 0.02 0.01 0.02 0.01 0.00 0.00 0.01
0.05 0.06 0.07 0.12 0.17 0.21 0.23 0.23 0.22 0.21 0.25 0.30 0.28 0.26 0.32 0.41 0.46 0.70 0.77 0.87 0.88 0.82 0.75 0.77 0.49 0.19 0.01 0.02 0.06 0.03 0.02 0.06 0.30 0.42 0.53 0.28 0.27 0.16 0.06 0.00 0.00 0.00 0.00 0.01 0.00 0.01 0.04
0.04 0.05 0.08 0.16 0.25 0.24 0.23 0.22 0.22 0.22 0.25 0.29 0.29 0.34 0.38 0.37 0.49 0.90 0.97 0.88 0.50 0.57 0.55 0.39 0.28 0.12 0.01 0.02 0.05 0.05 0.03 0.08 0.15 0.17 0.46 0.21 0.20 0.10 0.07 0.02 0.00 0.00 0.01 0.01 0.01 0.01 0.07
0.04 0.05 0.13 0.24 0.27 0.24 0.25 0.26 0.28 0.33 0.39 0.37 0.37 0.36 0.41 0.45 0.65 0.95 0.71 0.48 0.34 0.57 0.62 0.48 0.52 0.23 0.02 0.05 0.02 0.02 0.02 0.04 0.08 0.08 0.13 0.19 0.11 0.06 0.11 0.06 0.02 0.00 0.00 0.00 0.01 0.04 0.06
0.04 0.06 0.11 0.15 0.24 0.28 0.32 0.35 0.45 0.56 0.54 0.62 0.49 0.47 0.51 0.82 1.47 0.87 0.58 0.32 0.65 0.81 0.63 0.68 0.69 0.32 0.05 0.05 0.04 0.01 0.03 0.04 0.05 0.08 0.09 0.25 0.06 0.09 0.08 0.10 0.02 0.00 0.00 0.00 0.01 0.06 0.03
0.04 0.08 0.12 0.16 0.16 0.22 0.30 0.37 0.50 0.63 0.65 0.58 0.62 0.61 0.75 1.28 1.45 0.79 0.51 0.46 1.03 1.13 0.74 0.56 0.63 0.33 0.07 0.02 0.01 0.03 0.05 0.06 0.04 0.02 0.05 0.08 0.06 0.05 0.08 0.06 0.04 0.01 0.00 0.00 0.04 0.29 0.26
0.05 0.11 0.16 0.18 0.21 0.29 0.30 0.32 0.41 0.44 0.50 0.67 0.86 0.93 1.21 1.04 0.94 0.59 0.57 0.83 1.40 1.34 0.98 0.90 0.62 0.26 0.09 0.05 0.02 0.03 0.05 0.09 0.10 0.20 0.17 0.03 0.03 0.04 0.03 0.03 0.02 0.01 0.03 0.03 0.16 0.29 0.57
0.07 0.14 0.18 0.21 0.24 0.29 0.39 0.41 0.37 0.41 0.60 0.82 0.97 1.15 1.20 1.05 0.81 0.67 1.00 1.28 1.33 0.97 0.68 0.53 0.39 0.10 0.04 0.05 0.06 0.07 0.16 0.18 0.32 0.35 0.38 0.18 0.03 0.02 0.04 0.02 0.01 0.03 0.12 0.24 0.34 0.62 0.36
0.08 0.16 0.21 0.24 0.29 0.42 0.48 0.45 0.54 0.65 0.69 0.67 1.12 1.05 1.07 0.88 0.77 1.16 1.41 1.07 0.68 0.56 0.47 0.30 0.07 0.05 0.05 0.05 0.09 0.08 0.23 0.16 0.11 0.21 0.27 0.17 0.08 0.02 0.01 0.01 0.03 0.03 0.06 0.22 0.17 0.18 0.15
0.10 0.17 0.25 0.27 0.37 0.40 0.40 0.42 0.38 0.52 0.72 0.97 1.26 1.31 1.31 1.13 1.00 1.20 1.31 0.83 0.89 0.58 0.35 0.13 0.10 0.13 0.09 0.04 0.09 0.11 0.12 0.10 0.02 0.03 0.13 0.12 0.07 0.03 0.00 0.00 0.10 0.19 0.22 0.14 0.43 0.17 0.26
0.12 0.19 0.25 0.23 0.25 0.37 0.39 0.38 0.47 0.77 1.01 1.09 1.37 1.75 1.26 0.92 1.08 1.35 0.98 0.72 0.61 0.15 0.02 0.03 0.14 0.08 0.02 0.02 0.05 0.05 0.05 0.00 0.00 0.00 0.01 0.03 0.17 0.10 0.07 0.09 0.09 0.17 0.10 0.36 1.00 0.62 0.17
0.13 0.19 0.20 0.24 0.29 0.44 0.52 0.52 0.65 0.88 1.01 1.75 1.25 1.87 1.23 0.91 1.41 1.43 0.99 0.79 0.30 0.03 0.02 0.06 0.05 0.04 0.00 0.01 0.00 0.00 0.00 0.00 0.00 0.00 0.01 0.01 0.09 0.12 0.29 0.14 0.07 0.23 0.31 0.29 0.49 0.45 0.32
0.13 0.17 0.18 0.26 0.35 0.46 0.68 0.63 0.69 1.05 1.41 2.20 1.95 1.46 1.14 1.12 1.67 1.06 0.61 0.61 0.29 0.05 0.04 0.10 0.10 0.04 0.00 0.00 0.00 0.00 0.00 0.00 0.00 0.00 0.01 0.01 0.17 0.22 0.16 0.06 0.06 0.11 0.17 0.16 0.49 0.45 0.32
0.13 0.14 0.16 0.23 0.37 0.45 0.62 0.54 0.54 1.01 1.66 1.95 1.80 1.43 1.52 0.78 0.63 0.48 0.54 0.27 0.16 0.08 0.08 0.12 0.08 0.04 0.01 0.00 0.00 0.00 0.00 0.00 0.00 0.00 0.00 0.05 0.29 0.36 0.29 0.31 0.33 0.28 0.22 0.33 0.37 0.76 0.66
0.11 0.12 0.13 0.17 0.31 0.36 0.45 0.36 0.46 1.03 1.40 1.83 1.56 1.88 2.17 1.45 0.32 0.18 0.22 0.12 0.06 0.05 0.05 0.11 0.13 0.08 0.04 0.02 0.00 0.00 0.00 0.00 0.00 0.00 0.01 0.20 0.40 0.59 0.58 0.51 0.71 0.51 0.27 0.48 0.90 1.11 0.36
0.11 0.10 0.12 0.16 0.19 0.23 0.27 0.31 0.72 1.28 1.44 1.47 1.15 0.78 0.57 0.74 0.30 0.09 0.15 0.10 0.04 0.08 0.09 0.14 0.11 0.09 0.05 0.03 0.01 0.00 0.00 0.00 0.00 0.02 0.13 0.45 0.81 0.91 0.42 0.32 0.62 0.60 0.30 0.42 0.95 0.53 0.44
0.10 0.09 0.12 0.13 0.10 0.14 0.18 0.24 0.61 1.39 1.67 1.16 0.90 0.42 0.06 0.04 0.03 0.01 0.03 0.05 0.04 0.09 0.14 0.13 0.07 0.04 0.05 0.04 0.01 0.00 0.00 0.00 0.00 0.02 0.11 0.33 0.74 0.74 0.46 0.33 0.34 0.33 0.13 0.24 0.54 0.38 0.25
0.09 0.09 0.12 0.11 0.07 0.11 0.11 0.27 0.58 1.40 1.82 1.28 0.74 0.39 0.07 0.04 0.03 0.02 0.01 0.00 0.01 0.09 0.07 0.04 0.05 0.08 0.06 0.04 0.03 0.02 0.01 0.02 0.01 0.02 0.11 0.33 0.50 0.79 0.66 0.40 0.38 0.32 0.08 0.17 0.38 0.32 0.16
0.10 0.10 0.12 0.09 0.05 0.08 0.09 0.32 0.62 1.16 1.51 1.27 0.73 0.46 0.18 0.09 0.03 0.01 0.01 0.01 0.01 0.06 0.08 0.06 0.03 0.07 0.05 0.04 0.05 0.06 0.02 0.02 0.02 0.01 0.03 0.16 0.37 0.73 0.93 0.76 0.75 0.44 0.13 0.16 0.17 0.16 0.10
0.10 0.12 0.10 0.06 0.05 0.06 0.08 0.32 0.48 0.62 0.68 0.76 0.57 0.41 0.19 0.08 0.03 0.03 0.03 0.02 0.03 0.05 0.08 0.10 0.05 0.02 0.05 0.09 0.17 0.20 0.20 0.06 0.00 0.01 0.01 0.04 0.19 0.38 0.43 0.35 0.17 0.11 0.13 0.11 0.08 0.10 0.03
0.09 0.11 0.08 0.04 0.04 0.05 0.07 0.21 0.34 0.46 0.51 0.65 0.67 0.63 0.21 0.08 0.04 0.02 0.03 0.02 0.07 0.13 0.12 0.11 0.09 0.06 0.13 0.22 0.34 0.23 0.10 0.03 0.01 0.01 0.00 0.01 0.05 0.23 0.17 0.18 0.08 0.03 0.02 0.02 0.02 0.01 0.00
0.10 0.09 0.06 0.05 0.05 0.04 0.05 0.11 0.33 0.32 0.39 0.53 0.63 0.50 0.19 0.07 0.01 0.01 0.02 0.01 0.04 0.13 0.19 0.20 0.16 0.19 0.20 0.33 0.33 0.14 0.02 0.00 0.00 0.01 0.01 0.03 0.06 0.10 0.11 0.12 0.01 0.00 0.00 0.00 0.01 0.02 0.00
0.10 0.07 0.05 0.04 0.04 0.05 0.04 0.09 0.30 0.25 0.34 0.44 0.40 0.41 0.24 0.06 0.01 0.01 0.00 0.01 0.06 0.12 0.22 0.24 0.29 0.30 0.27 0.34 0.29 0.13 0.02 0.01 0.00 0.00 0.00 0.01 0.02 0.03 0.03 0.04 0.00 0.00 0.00 0.00 0.00 0.00 0.00
0.09 0.06 0.05 0.04 0.04 0.06 0.06 0.07 0.29 0.24 0.27 0.38 0.31 0.31 0.22 0.08 0.02 0.00 0.00 0.00 0.03 0.09 0.22 0.24 0.29 0.21 0.25 0.22 0.14 0.10 0.04 0.01 0.00 0.01 0.00 0.00 0.00 0.00 0.00 0.00 0.00 0.00 0.00 0.00 0.00 0.00 0.00

GFSGBSN_prec_precacc_039.txt.gz
Total_Precipitation_Accumulation
0.11 0.10 0.11 0.12 0.11 0.10 0.14 0.16 0.15 0.14 0.15 0.16 0.20 0.20 0.17 0.15 0.19 0.20 0.17 0.15 0.16 0.16 0.12 0.15 0.24 0.32 0.52 0.38 0.10 0.04 0.03 0.06 0.16 0.34 0.05 0.03 0.00 0.00 0.00 0.00 0.00 0.00 0.00 0.00 0.00 0.00 0.00
0.09 0.08 0.07 0.09 0.10 0.12 0.18 0.18 0.17 0.17 0.17 0.20 0.20 0.21 0.19 0.16 0.22 0.17 0.14 0.14 0.14 0.15 0.18 0.16 0.33 0.54 0.40 0.22 0.03 0.04 0.07 0.09 0.10 0.25 0.10 0.04 0.01 0.00 0.00 0.00 0.01 0.00 0.00 0.00 0.00 0.00 0.00
0.07 0.06 0.08 0.10 0.12 0.16 0.20 0.21 0.21 0.20 0.23 0.22 0.27 0.23 0.16 0.16 0.24 0.24 0.18 0.15 0.13 0.15 0.16 0.23 0.37 0.53 0.28 0.09 0.01 0.08 0.06 0.28 0.14 0.22 0.16 0.08 0.03 0.04 0.04 0.01 0.00 0.01 0.04 0.01 0.00 0.00 0.00
0.06 0.08 0.09 0.09 0.13 0.18 0.19 0.20 0.18 0.21 0.25 0.26 0.31 0.27 0.22 0.21 0.20 0.24 0.16 0.18 0.19 0.19 0.25 0.31 0.51 0.59 0.24 0.03 0.01 0.05 0.05 0.29 0.27 0.36 0.31 0.23 0.05 0.05 0.04 0.02 0.00 0.02 0.03 0.01 0.00 0.00 0.00
0.08 0.09 0.09 0.09 0.14 0.17 0.18 0.18 0.19 0.19 0.21 0.29 0.31 0.24 0.21 0.22 0.24 0.28 0.24 0.30 0.25 0.29 0.42 0.52 0.57 0.42 0.17 0.08 0.03 0.01 0.05 0.25 0.27 0.45 0.68 0.35 0.18 0.05 0.02 0.04 0.02 0.02 0.01 0.01 0.00 0.00 0.00
0.07 0.07 0.07 0.10 0.15 0.19 0.19 0.20 0.21 0.20 0.23 0.30 0.30 0.25 0.24 0.26 0.37 0.49 0.49 0.45 0.47 0.38 0.67 0.95 0.70 0.53 0.10 0.02 0.05 0.01 0.03 0.27 0.36 0.40 0.64 0.45 0.31 0.12 0.02 0.03 0.02 0.01 0.02 0.01 0.00 0.00 0.01
0.05 0.06 0.08 0.13 0.18 0.23 0.25 0.24 0.23 0.23 0.29 0.35 0.32 0.27 0.32 0.42 0.50 0.76 0.78 0.87 0.88 0.82 0.76 0.77 0.49 0.21 0.02 0.02 0.08 0.05 0.05 0.21 0.52 0.54 0.56 0.29 0.29 0.17 0.06 0.00 0.00 0.00 0.00 0.01 0.00 0.01 0.04
0.04 0.05 0.09 0.16 0.26 0.25 0.24 0.23 0.23 0.25 0.31 0.35 0.34 0.39 0.45 0.39 0.53 0.99 0.98 0.88 0.50 0.57 0.55 0.39 0.28 0.15 0.03 0.03 0.11 0.08 0.06 0.22 0.51 0.49 0.60 0.24 0.22 0.10 0.07 0.02 0.00 0.00 0.01 0.01 0.01 0.01 0.07
0.04 0.05 0.13 0.24 0.28 0.25 0.25 0.27 0.29 0.36 0.44 0.42 0.42 0.42 0.47 0.49 0.73 1.04 0.72 0.48 0.34 0.57 0.62 0.48 0.56 0.27 0.06 0.07 0.10 0.04 0.05 0.22 0.48 0.49 0.40 0.27 0.13 0.07 0.11 0.07 0.02 0.00 0.00 0.00 0.01 0.04 0.06
0.04 0.06 0.12 0.15 0.25 0.29 0.32 0.35 0.46 0.57 0.56 0.63 0.51 0.51 0.57 0.88 1.49 0.92 0.58 0.32 0.65 0.81 0.63 0.72 0.80 0.44 0.10 0.10 0.13 0.02 0.06 0.10 0.26 0.33 0.37 0.39 0.10 0.14 0.10 0.11 0.02 0.00 0.00 0.00 0.01 0.06 0.03
0.04 0.08 0.12 0.16 0.16 0.23 0.31 0.38 0.51 0.64 0.66 0.58 0.64 0.64 0.77 1.28 1.45 0.79 0.51 0.46 1.03 1.13 0.77 0.62 0.73 0.41 0.12 0.10 0.09 0.08 0.07 0.09 0.09 0.07 0.15 0.19 0.09 0.16 0.15 0.10 0.05 0.01 0.00 0.00 0.04 0.29 0.26
0.05 0.11 0.16 0.18 0.22 0.29 0.30 0.32 0.42 0.44 0.50 0.67 0.87 0.94 1.21 1.04 0.94 0.59 0.57 0.83 1.40 1.34 1.01 0.98 0.74 0.34 0.10 0.08 0.05 0.11 0.08 0.11 0.12 0.24 0.22 0.05 0.10 0.11 0.09 0.11 0.05 0.02 0.03 0.03 0.16 0.29 0.57
0.07 0.14 0.18 0.21 0.24 0.29 0.39 0.41 0.37 0.42 0.60 0.82 0.97 1.15 1.20 1.05 0.81 0.67 1.00 1.28 1.33 0.99 0.78 0.67 0.52 0.12 0.04 0.07 0.09 0.15 0.18 0.19 0.33 0.38 0.41 0.21 0.14 0.07 0.11 0.12 0.08 0.05 0.12 0.24 0.34 0.62 0.36
0.08 0.16 0.21 0.24 0.29 0.42 0.48 0.46 0.55 0.65 0.69 0.67 1.12 1.05 1.07 0.88 0.77 1.16 1.41 1.07 0.71 0.61 0.55 0.37 0.09 0.05 0.05 0.05 0.10 0.10 0.26 0.16 0.11 0.22 0.29 0.17 0.09 0.02 0.02 0.02 0.04 0.03 0.06 0.22 0.17 0.18 0.15
0.10 0.17 0.25 0.27 0.37 0.40 0.40 0.42 0.38 0.52 0.72 0.97 1.26 1.31 1.31 1.13 1.00 1.20 1.31 0.83 0.93 0.62 0.40 0.16 0.10 0.13 0.10 0.04 0.10 0.12 0.15 0.11 0.02 0.03 0.13 0.12 0.07 0.03 0.00 0.00 0.10 0.19 0.22 0.14 0.43 0.17 0.26
0.12 0.19 0.25 0.23 0.25 0.37 0.39 0.38 0.47 0.78 1.01 1.09 1.37 1.75 1.26 0.92 1.08 1.35 0.98 0.72 0.61 0.15 0.02 0.03 0.14 0.08 0.02 0.02 0.05 0.05 0.05 0.00 0.00 0.00 0.01 0.03 0.17 0.10 0.07 0.09 0.09 0.17 0.10 0.36 1.00 0.62 0.17
0.13 0.20 0.20 0.24 0.29 0.44 0.52 0.52 0.65 0.88 1.01 1.75 1.25 1.87 1.23 0.91 1.41 1.43 0.99 0.79 0.30 0.03 0.02 0.06 0.05 0.04 0.00 0.01 0.00 0.00 0.00 0.00 0.00 0.00 0.01 0.01 0.09 0.12 0.29 0.14 0.07 0.23 0.31 0.29 0.49 0.45 0.32
0.13 0.17 0.18 0.26 0.35 0.46 0.68 0.63 0.69 1.05 1.41 2.20 1.95 1.46 1.14 1.12 1.67 1.06 0.61 0.61 0.29 0.05 0.04 0.10 0.10 0.04 0.00 0.00 0.00 0.00 0.00 0.00 0.00 0.00 0.01 0.01 0.17 0.22 0.16 0.06 0.06 0.11 0.17 0.16 0.49 0.45 0.32
0.13 0.14 0.16 0.23 0.37 0.45 0.62 0.54 0.54 1.01 1.66 1.95 1.80 1.43 1.52 0.78 0.63 0.48 0.54 0.27 0.16 0.08 0.08 0.12 0.08 0.04 0.01 0.00 0.00 0.00 0.00 0.00 0.00 0.00 0.00 0.05 0.29 0.36 0.29 0.31 0.33 0.28 0.22 0.33 0.37 0.76 0.66
0.11 0.12 0.13 0.17 0.31 0.36 0.45 0.36 0.46 1.03 1.40 1.83 1.56 1.88 2.17 1.45 0.32 0.18 0.22 0.12 0.06 0.05 0.05 0.11 0.13 0.08 0.04 0.02 0.00 0.00 0.00 0.00 0.00 0.00 0.01 0.20 0.40 0.59 0.58 0.51 0.71 0.51 0.27 0.48 0.90 1.11 0.36
0.11 0.10 0.13 0.16 0.19 0.23 0.27 0.31 0.72 1.28 1.44 1.47 1.15 0.78 0.57 0.74 0.30 0.09 0.15 0.10 0.04 0.08 0.09 0.14 0.11 0.09 0.05 0.03 0.01 0.00 0.00 0.00 0.00 0.02 0.13 0.45 0.81 0.91 0.42 0.32 0.62 0.60 0.30 0.42 0.95 0.53 0.44
0.10 0.09 0.12 0.13 0.10 0.14 0.18 0.24 0.61 1.39 1.67 1.16 0.90 0.42 0.06 0.04 0.03 0.01 0.03 0.05 0.04 0.09 0.14 0.13 0.07 0.04 0.05 0.04 0.01 0.00 0.00 0.00 0.00 0.02 0.11 0.33 0.74 0.74 0.46 0.33 0.34 0.33 0.13 0.24 0.54 0.38 0.25
0.09 0.09 0.12 0.11 0.07 0.11 0.11 0.27 0.58 1.40 1.82 1.28 0.74 0.39 0.07 0.04 0.03 0.02 0.01 0.00 0.01 0.09 0.07 0.04 0.05 0.08 0.06 0.04 0.03 0.02 0.01 0.02 0.01 0.02 0.11 0.33 0.50 0.79 0.66 0.40 0.38 0.32 0.08 0.17 0.38 0.32 0.16
0.10 0.10 0.12 0.09 0.06 0.08 0.09 0.32 0.62 1.16 1.51 1.27 0.73 0.46 0.18 0.09 0.03 0.01 0.01 0.01 0.01 0.06 0.08 0.06 0.03 0.07 0.05 0.04 0.05 0.06 0.02 0.02 0.02 0.01 0.03 0.16 0.37 0.73 0.93 0.76 0.75 0.44 0.13 0.16 0.17 0.16 0.10
0.10 0.12 0.10 0.07 0.06 0.06 0.08 0.32 0.48 0.62 0.68 0.76 0.57 0.41 0.19 0.08 0.03 0.03 0.03 0.02 0.03 0.05 0.08 0.10 0.05 0.02 0.05 0.09 0.17 0.20 0.20 0.06 0.00 0.01 0.01 0.04 0.19 0.38 0.43 0.35 0.17 0.11 0.13 0.11 0.08 0.10 0.03
0.09 0.11 0.08 0.05 0.05 0.06 0.07 0.21 0.34 0.46 0.51 0.65 0.67 0.63 0.21 0.08 0.04 0.02 0.03 0.02 0.07 0.13 0.12 0.11 0.09 0.06 0.13 0.22 0.34 0.23 0.10 0.03 0.01 0.01 0.00 0.01 0.05 0.23 0.17 0.18 0.08 0.03 0.02 0.02 0.03 0.01 0.00
0.10 0.09 0.06 0.05 0.05 0.07 0.05 0.11 0.33 0.32 0.39 0.53 0.63 0.50 0.19 0.07 0.01 0.01 0.02 0.01 0.04 0.13 0.19 0.20 0.16 0.19 0.20 0.33 0.33 0.14 0.02 0.00 0.00 0.01 0.01 0.04 0.07 0.11 0.11 0.12 0.01 0.00 0.00 0.01 0.03 0.02 0.00
0.10 0.07 0.05 0.04 0.04 0.06 0.08 0.11 0.30 0.25 0.34 0.44 0.40 0.41 0.24 0.06 0.01 0.01 0.00 0.01 0.06 0.12 0.22 0.24 0.29 0.30 0.27 0.34 0.29 0.13 0.02 0.01 0.00 0.00 0.00 0.02 0.02 0.04 0.04 0.04 0.00 0.00 0.00 0.02 0.01 0.00 0.00
0.09 0.06 0.05 0.04 0.04 0.06 0.07 0.12 0.31 0.24 0.27 0.38 0.31 0.31 0.22 0.08 0.02 0.00 0.00 0.00 0.03 0.09 0.22 0.24 0.29 0.21 0.25 0.22 0.14 0.10 0.04 0.01 0.00 0.01 0.00 0.00 0.00 0.00 0.00 0.00 0.00 0.00 0.00 0.00 0.00 0.00 0.00

GFSGBSN_prec_precacc_042.txt.gz
Total_Precipitation_Accumulation
0.11 0.10 0.11 0.13 0.11 0.11 0.15 0.19 0.16 0.15 0.16 0.19 0.24 0.25 0.21 0.16 0.19 0.21 0.17 0.16 0.17 0.16 0.12 0.19 0.29 0.33 0.52 0.39 0.11 0.06 0.04 0.06 0.17 0.34 0.07 0.03 0.01 0.01 0.00 0.00 0.00 0.00 0.00 0.00 0.00 0.00 0.00
0.09 0.09 0.08 0.10 0.10 0.12 0.19 0.21 0.19 0.18 0.19 0.24 0.25 0.27 0.23 0.18 0.25 0.19 0.14 0.14 0.14 0.16 0.18 0.25 0.37 0.55 0.40 0.22 0.03 0.05 0.07 0.11 0.11 0.25 0.12 0.06 0.01 0.00 0.01 0.00 0.01 0.00 0.00 0.00 0.00 0.00 0.00
0.07 0.07 0.08 0.11 0.12 0.17 0.22 0.23 0.22 0.21 0.25 0.25 0.31 0.27 0.18 0.25 0.31 0.25 0.18 0.17 0.14 0.16 0.16 0.29 0.42 0.55 0.29 0.09 0.01 0.08 0.06 0.29 0.16 0.22 0.17 0.10 0.03 0.05 0.04 0.01 0.00 0.01 0.04 0.01 0.00 0.00 0.00
0.07 0.09 0.09 0.10 0.14 0.19 0.21 0.21 0.19 0.22 0.26 0.27 0.35 0.30 0.25 0.31 0.21 0.24 0.17 0.22 0.20 0.20 0.26 0.31 0.52 0.61 0.25 0.03 0.01 0.06 0.06 0.32 0.29 0.38 0.35 0.27 0.05 0.05 0.04 0.02 0.00 0.02 0.03 0.01 0.00 0.00 0.00
0.08 0.09 0.09 0.10 0.14 0.19 0.20 0.19 0.20 0.21 0.25 0.34 0.37 0.31 0.28 0.25 0.24 0.28 0.24 0.31 0.26 0.31 0.44 0.54 0.59 0.45 0.18 0.11 0.03 0.02 0.06 0.32 0.31 0.51 0.81 0.52 0.24 0.07 0.02 0.04 0.02 0.02 0.01 0.01 0.00 0.00 0.00
0.08 0.07 0.07 0.10 0.15 0.20 0.21 0.21 0.22 0.22 0.29 0.37 0.37 0.33 0.28 0.26 0.37 0.49 0.49 0.45 0.47 0.38 0.69 0.96 0.71 0.56 0.10 0.04 0.05 0.01 0.04 0.45 0.43 0.50 0.83 0.67 0.44 0.17 0.03 0.03 0.02 0.01 0.02 0.01 0.00 0.00 0.01
0.05 0.07 0.08 0.13 0.18 0.24 0.26 0.25 0.24 0.26 0.34 0.39 0.37 0.34 0.37 0.47 0.51 0.77 0.78 0.87 0.88 0.82 0.77 0.77 0.49 0.23 0.06 0.07 0.08 0.05 0.08 0.65 0.71 0.66 0.64 0.38 0.33 0.19 0.07 0.00 0.00 0.00 0.00 0.01 0.00 0.01 0.04
0.04 0.05 0.09 0.16 0.26 0.26 0.25 0.25 0.25 0.28 0.34 0.36 0.36 0.42 0.49 0.48 0.59 1.04 0.98 0.88 0.50 0.57 0.55 0.39 0.28 0.16 0.04 0.06 0.12 0.09 0.15 0.65 0.81 0.61 0.66 0.28 0.23 0.10 0.09 0.02 0.00 0.00 0.01 0.01 0.01 0.01 0.07
0.05 0.05 0.13 0.24 0.28 0.26 0.26 0.29 0.31 0.38 0.45 0.43 0.42 0.42 0.48 0.54 0.78 1.13 0.74 0.48 0.34 0.57 0.62 0.49 0.58 0.30 0.11 0.09 0.12 0.05 0.21 0.73 0.68 0.60 0.44 0.28 0.14 0.07 0.11 0.07 0.02 0.00 0.00 0.00 0.01 0.04 0.06
0.04 0.06 0.12 0.15 0.25 0.29 0.33 0.36 0.47 0.59 0.57 0.63 0.51 0.51 0.57 0.88 1.49 0.93 0.58 0.32 0.65 0.81 0.65 0.79 0.89 0.62 0.14 0.11 0.14 0.03 0.33 0.55 0.58 0.59 0.49 0.44 0.14 0.14 0.10 0.11 0.02 0.00 0.00 0.00 0.01 0.06 0.03
0.04 0.08 0.12 0.16 0.16 0.23 0.31 0.39 0.53 0.65 0.66 0.58 0.64 0.64 0.77 1.28 1.45 0.79 0.51 0.46 1.03 1.14 0.85 0.78 0.91 0.46 0.13 0.12 0.10 0.10 0.40 0.27 0.32 0.31 0.38 0.36 0.20 0.19 0.16 0.10 0.05 0.01 0.00 0.00 0.04 0.29 0.26
0.05 0.11 0.16 0.18 0.22 0.29 0.30 0.33 0.43 0.45 0.50 0.67 0.87 0.94 1.21 1.04 0.94 0.59 0.57 0.83 1.40 1.34 1.07 1.05 0.80 0.37 0.10 0.12 0.05 0.14 0.18 0.16 0.22 0.41 0.38 0.23 0.21 0.27 0.15 0.14 0.05 0.02 0.03 0.03 0.16 0.29 0.57
0.07 0.14 0.18 0.21 0.24 0.29 0.39 0.41 0.38 0.42 0.61 0.82 0.97 1.15 1.20 1.05 0.81 0.67 1.00 1.28 1.34 1.00 0.79 0.69 0.57 0.12 0.05 0.10 0.13 0.20 0.21 0.22 0.37 0.51 0.52 0.35 0.22 0.17 0.18 0.23 0.14 0.05 0.13 0.25 0.34 0.62 0.36
0.08 0.16 0.21 0.24 0.29 0.42 0.48 0.46 0.55 0.65 0.70 0.68 1.12 1.05 1.07 0.88 0.77 1.16 1.41 1.07 0.73 0.65 0.58 0.39 0.10 0.06 0.06 0.06 0.16 0.19 0.28 0.17 0.11 0.22 0.30 0.24 0.20 0.08 0.10 0.10 0.13 0.04 0.06 0.22 0.17 0.18 0.15
0.10 0.18 0.25 0.27 0.37 0.40 0.40 0.42 0.38 0.52 0.72 0.97 1.26 1.31 1.31 1.13 1.00 1.20 1.31 0.84 0.95 0.64 0.41 0.16 0.11 0.13 0.10 0.05 0.11 0.12 0.16 0.11 0.02 0.04 0.13 0.12 0.09 0.04 0.01 0.01 0.12 0.20 0.22 0.14 0.43 0.17 0.26
0.12 0.19 0.25 0.23 0.25 0.37 0.39 0.38 0.47 0.78 1.01 1.09 1.37 1.75 1.26 0.92 1.08 1.35 0.98 0.72 0.61 0.15 0.02 0.03 0.14 0.08 0.02 0.02 0.05 0.05 0.05 0.00 0.00 0.00 0.01 0.03 0.18 0.10 0.07 0.09 0.09 0.17 0.10 0.36 1.00 0.62 0.17
0.13 0.20 0.21 0.24 0.29 0.44 0.52 0.52 0.65 0.88 1.01 1.75 1.25 1.87 1.23 0.91 1.41 1.43 0.99 0.79 0.30 0.03 0.02 0.06 0.05 0.04 0.00 0.01 0.00 0.00 0.00 0.00 0.00 0.00 0.01 0.01 0.09 0.12 0.29 0.14 0.07 0.23 0.31 0.29 0.49 0.45 0.32
0.13 0.17 0.18 0.26 0.35 0.46 0.68 0.63 0.69 1.05 1.41 2.20 1.95 1.46 1.14 1.12 1.67 1.06 0.61 0.61 0.29 0.05 0.04 0.10 0.10 0.04 0.00 0.00 0.00 0.00 0.00 0.00 0.00 0.00 0.01 0.01 0.17 0.22 0.16 0.06 0.06 0.11 0.17 0.16 0.49 0.45 0.32
0.13 0.15 0.16 0.23 0.37 0.45 0.62 0.54 0.54 1.01 1.66 1.95 1.80 1.43 1.52 0.78 0.63 0.48 0.54 0.27 0.16 0.08 0.08 0.12 0.08 0.04 0.01 0.00 0.00 0.00 0.00 0.00 0.00 0.00 0.00 0.05 0.29 0.36 0.29 0.31 0.33 0.28 0.22 0.33 0.37 0.76 0.66
0.11 0.12 0.14 0.18 0.31 0.36 0.45 0.36 0.46 1.03 1.40 1.83 1.56 1.88 2.17 1.45 0.32 0.18 0.22 0.12 0.06 0.05 0.05 0.11 0.13 0.08 0.04 0.02 0.00 0.00 0.00 0.00 0.00 0.00 0.01 0.20 0.40 0.59 0.58 0.51 0.71 0.51 0.27 0.48 0.90 1.11 0.36
0.11 0.10 0.13 0.16 0.19 0.23 0.27 0.31 0.72 1.28 1.44 1.47 1.15 0.78 0.57 0.74 0.30 0.09 0.15 0.10 0.04 0.08 0.09 0.14 0.11 0.09 0.05 0.03 0.01 0.00 0.00 0.00 0.00 0.02 0.13 0.45 0.81 0.91 0.42 0.32 0.62 0.60 0.30 0.42 0.95 0.53 0.44
0.10 0.09 0.12 0.13 0.10 0.14 0.18 0.24 0.61 1.39 1.67 1.16 0.90 0.42 0.06 0.04 0.03 0.01 0.03 0.05 0.04 0.09 0.14 0.13 0.07 0.04 0.05 0.04 0.01 0.00 0.00 0.00 0.00 0.02 0.11 0.33 0.74 0.74 0.46 0.33 0.34 0.33 0.13 0.24 0.54 0.38 0.25
0.09 0.09 0.13 0.11 0.08 0.11 0.11 0.27 0.58 1.40 1.82 1.28 0.74 0.39 0.07 0.04 0.03 0.02 0.01 0.00 0.01 0.09 0.07 0.04 0.05 0.08 0.06 0.04 0.03 0.02 0.01 0.02 0.01 0.02 0.11 0.33 0.50 0.79 0.66 0.40 0.38 0.32 0.08 0.17 0.38 0.32 0.16
0.10 0.10 0.12 0.09 0.06 0.09 0.09 0.32 0.62 1.16 1.51 1.27 0.73 0.46 0.18 0.09 0.03 0.01 0.01 0.01 0.01 0.06 0.08 0.06 0.03 0.07 0.05 0.04 0.05 0.06 0.02 0.02 0.02 0.01 0.03 0.16 0.37 0.73 0.93 0.76 0.75 0.44 0.13 0.16 0.17 0.16 0.10
0.10 0.12 0.10 0.07 0.06 0.08 0.09 0.32 0.48 0.62 0.68 0.76 0.57 0.41 0.19 0.08 0.03 0.03 0.03 0.02 0.03 0.05 0.08 0.10 0.05 0.02 0.05 0.09 0.17 0.20 0.20 0.06 0.00 0.01 0.01 0.04 0.19 0.38 0.43 0.35 0.17 0.11 0.13 0.11 0.08 0.10 0.03
0.09 0.11 0.08 0.05 0.05 0.07 0.09 0.21 0.34 0.46 0.51 0.65 0.67 0.63 0.21 0.08 0.04 0.02 0.03 0.02 0.07 0.13 0.12 0.11 0.09 0.06 0.13 0.22 0.34 0.23 0.10 0.03 0.01 0.01 0.00 0.01 0.05 0.24 0.17 0.19 0.08 0.03 0.02 0.02 0.03 0.02 0.00
0.10 0.09 0.06 0.05 0.05 0.07 0.07 0.14 0.35 0.33 0.39 0.53 0.63 0.50 0.19 0.07 0.01 0.01 0.02 0.01 0.04 0.13 0.19 0.20 0.16 0.19 0.20 0.33 0.33 0.15 0.02 0.00 0.00 0.01 0.02 0.04 0.07 0.12 0.12 0.13 0.01 0.00 0.00 0.01 0.06 0.05 0.00
0.11 0.08 0.05 0.04 0.04 0.06 0.08 0.13 0.34 0.27 0.34 0.44 0.40 0.41 0.24 0.06 0.01 0.01 0.00 0.01 0.06 0.12 0.22 0.24 0.29 0.30 0.27 0.35 0.29 0.13 0.02 0.01 0.00 0.00 0.00 0.02 0.03 0.05 0.05 0.05 0.00 0.00 0.00 0.02 0.02 0.00 0.00
0.11 0.06 0.05 0.04 0.04 0.07 0.07 0.13 0.34 0.28 0.28 0.38 0.31 0.31 0.22 0.08 0.02 0.00 0.00 0.00 0.03 0.09 0.22 0.24 0.29 0.21 0.25 0.22 0.14 0.10 0.04 0.01 0.00 0.01 0.00 0.00 0.00 0.00 0.00 0.00 0.00 0.00 0.00 0.00 0.00 0.00 0.00